Time,TemperatureF,DewpointF,PressureIn,WindDirection,WindDirectionDegrees,WindSpeedMPH,WindSpeedGustMPH,Humidity,HourlyPrecipIn,Conditions,Clouds,dailyrainin,SoftwareType,DateUTC
2013-08-04 00:00:00,58.4,49.4,30.14,WNW,294,2.0,2.0,72,0.00,,,0.00,Wunderground v.1.13,2013-08-04 05:00:00,
2013-08-04 00:01:00,58.4,49.4,30.14,WNW,294,2.0,2.0,72,0.00,,,0.00,Wunderground v.1.13,2013-08-04 05:01:00,
2013-08-04 00:02:00,58.3,49.3,30.13,WNW,292,2.0,2.0,72,0.00,,,0.00,Wunderground v.1.13,2013-08-04 05:02:00,
2013-08-04 00:03:00,58.3,49.3,30.13,WNW,294,1.0,2.0,72,0.00,,,0.00,Wunderground v.1.13,2013-08-04 05:03:00,
2013-08-04 00:04:00,58.3,49.3,30.13,WNW,294,1.0,2.0,72,0.00,,,0.00,Wunderground v.1.13,2013-08-04 05:04:00,
2013-08-04 00:06:00,58.2,49.6,30.14,WNW,294,1.0,2.0,73,0.00,,,0.00,Wunderground v.1.13,2013-08-04 05:06:00,
2013-08-04 00:07:00,58.2,49.6,30.14,WNW,294,1.0,2.0,73,0.00,,,0.00,Wunderground v.1.13,2013-08-04 05:07:00,
2013-08-04 00:09:00,58.1,49.5,30.14,WNW,294,1.0,2.0,73,0.00,,,0.00,Wunderground v.1.13,2013-08-04 05:09:00,
2013-08-04 00:11:00,58.1,49.5,30.13,WNW,294,1.0,1.0,73,0.00,,,0.00,Wunderground v.1.13,2013-08-04 05:11:00,
2013-08-04 00:12:00,58.1,49.5,30.14,WNW,294,1.0,1.0,73,0.00,,,0.00,Wunderground v.1.13,2013-08-04 05:12:00,
2013-08-04 00:17:00,57.9,49.3,30.14,WNW,293,1.0,2.0,73,0.00,,,0.00,Wunderground v.1.13,2013-08-04 05:17:00,
2013-08-04 00:18:00,57.9,49.3,30.14,WNW,292,1.0,2.0,73,0.00,,,0.00,Wunderground v.1.13,2013-08-04 05:18:00,
2013-08-04 00:22:00,57.8,49.6,30.14,WNW,292,1.0,1.0,74,0.00,,,0.00,Wunderground v.1.13,2013-08-04 05:22:00,
2013-08-04 00:23:00,57.7,49.5,30.14,WNW,292,1.0,2.0,74,0.00,,,0.00,Wunderground v.1.13,2013-08-04 05:23:00,
2013-08-04 00:25:00,57.7,49.5,30.14,WNW,292,1.0,4.0,74,0.00,,,0.00,Wunderground v.1.13,2013-08-04 05:25:00,
2013-08-04 00:29:00,57.7,49.5,30.14,WNW,294,1.0,5.0,74,0.00,,,0.00,Wunderground v.1.13,2013-08-04 05:29:00,
2013-08-04 00:31:00,57.7,49.5,30.14,NW,311,1.0,1.0,74,0.00,,,0.00,Wunderground v.1.13,2013-08-04 05:31:00,
2013-08-04 00:33:00,57.7,49.5,30.14,NW,315,2.0,2.0,74,0.00,,,0.00,Wunderground v.1.13,2013-08-04 05:33:00,
2013-08-04 00:36:00,57.7,49.5,30.14,NW,315,2.0,2.0,74,0.00,,,0.00,Wunderground v.1.13,2013-08-04 05:36:00,
2013-08-04 00:38:00,57.7,49.5,30.14,NW,317,1.0,2.0,74,0.00,,,0.00,Wunderground v.1.13,2013-08-04 05:38:00,
2013-08-04 00:40:00,57.7,49.5,30.14,NW,317,2.0,2.0,74,0.00,,,0.00,Wunderground v.1.13,2013-08-04 05:40:00,
2013-08-04 00:42:00,57.6,49.4,30.14,NW,313,1.0,4.0,74,0.00,,,0.00,Wunderground v.1.13,2013-08-04 05:42:00,
2013-08-04 00:45:00,57.5,49.3,30.14,NW,312,1.0,1.0,74,0.00,,,0.00,Wunderground v.1.13,2013-08-04 05:45:00,
2013-08-04 00:47:00,57.4,49.2,30.14,NW,311,1.0,3.0,74,0.00,,,0.00,Wunderground v.1.13,2013-08-04 05:47:00,
2013-08-04 00:48:00,57.3,49.4,30.14,WNW,296,1.0,4.0,75,0.00,,,0.00,Wunderground v.1.13,2013-08-04 05:48:00,
2013-08-04 00:51:00,57.2,49.3,30.15,WNW,296,1.0,1.0,75,0.00,,,0.00,Wunderground v.1.13,2013-08-04 05:51:00,
2013-08-04 00:52:00,57.1,49.2,30.15,WNW,296,1.0,1.0,75,0.00,,,0.00,Wunderground v.1.13,2013-08-04 05:52:00,
2013-08-04 00:53:00,57.1,49.2,30.15,WNW,296,1.0,1.0,75,0.00,,,0.00,Wunderground v.1.13,2013-08-04 05:53:00,
2013-08-04 00:54:00,57.0,49.2,30.15,WNW,296,1.0,1.0,75,0.00,,,0.00,Wunderground v.1.13,2013-08-04 05:54:00,
2013-08-04 00:55:00,56.9,49.1,30.15,WNW,296,2.0,3.0,75,0.00,,,0.00,Wunderground v.1.13,2013-08-04 05:55:00,
2013-08-04 00:58:00,56.8,49.3,30.14,WNW,296,2.0,3.0,76,0.00,,,0.00,Wunderground v.1.13,2013-08-04 05:58:00,
2013-08-04 01:00:00,56.6,49.1,30.14,WNW,296,1.0,1.0,76,0.00,,,0.00,Wunderground v.1.13,2013-08-04 06:00:00,
2013-08-04 01:04:00,56.6,49.5,30.15,WNW,297,2.0,4.0,77,0.00,,,0.00,Wunderground v.1.13,2013-08-04 06:04:00,
2013-08-04 01:05:00,56.6,49.5,30.15,WNW,297,2.0,2.0,77,0.00,,,0.00,Wunderground v.1.13,2013-08-04 06:05:00,
2013-08-04 01:06:00,56.6,49.5,30.15,West,281,2.0,2.0,77,0.00,,,0.00,Wunderground v.1.13,2013-08-04 06:06:00,
2013-08-04 01:09:00,56.5,49.4,30.15,West,280,2.0,2.0,77,0.00,,,0.00,Wunderground v.1.13,2013-08-04 06:09:00,
2013-08-04 01:10:00,56.5,49.4,30.15,West,281,2.0,2.0,77,0.00,,,0.00,Wunderground v.1.13,2013-08-04 06:10:00,
2013-08-04 01:11:00,56.5,49.4,30.15,West,281,1.0,2.0,77,0.00,,,0.00,Wunderground v.1.13,2013-08-04 06:11:00,
2013-08-04 01:12:00,56.5,49.4,30.15,West,281,1.0,2.0,77,0.00,,,0.00,Wunderground v.1.13,2013-08-04 06:12:00,
2013-08-04 01:14:00,56.4,49.3,30.15,West,281,1.0,2.0,77,0.00,,,0.00,Wunderground v.1.13,2013-08-04 06:14:00,
2013-08-04 01:17:00,56.4,49.3,30.15,WNW,301,1.0,5.0,77,0.00,,,0.00,Wunderground v.1.13,2013-08-04 06:17:00,
2013-08-04 01:20:00,56.3,49.2,30.16,WNW,301,1.0,4.0,77,0.00,,,0.00,Wunderground v.1.13,2013-08-04 06:20:00,
2013-08-04 01:21:00,56.3,49.2,30.16,WNW,300,1.0,4.0,77,0.00,,,0.00,Wunderground v.1.13,2013-08-04 06:21:00,
2013-08-04 01:22:00,56.3,49.2,30.16,WNW,301,2.0,4.0,77,0.00,,,0.00,Wunderground v.1.13,2013-08-04 06:22:00,
2013-08-04 01:23:00,56.2,49.1,30.16,WNW,301,2.0,4.0,77,0.00,,,0.00,Wunderground v.1.13,2013-08-04 06:23:00,
2013-08-04 01:26:00,56.1,49.3,30.16,WNW,289,2.0,4.0,78,0.00,,,0.00,Wunderground v.1.13,2013-08-04 06:26:00,
2013-08-04 01:28:00,56.1,49.3,30.16,WNW,290,2.0,4.0,78,0.00,,,0.00,Wunderground v.1.13,2013-08-04 06:28:00,
2013-08-04 01:29:00,56.1,49.3,30.16,WNW,290,2.0,4.0,78,0.00,,,0.00,Wunderground v.1.13,2013-08-04 06:29:00,
2013-08-04 01:34:00,56.0,49.2,30.16,WNW,296,2.0,4.0,78,0.00,,,0.00,Wunderground v.1.13,2013-08-04 06:34:00,
2013-08-04 01:35:00,56.0,49.2,30.16,NW,304,2.0,5.0,78,0.00,,,0.00,Wunderground v.1.13,2013-08-04 06:35:00,
2013-08-04 01:36:00,56.0,49.2,30.16,NW,306,2.0,5.0,78,0.00,,,0.00,Wunderground v.1.13,2013-08-04 06:36:00,
2013-08-04 01:38:00,56.0,49.2,30.15,NNW,331,2.0,5.0,78,0.00,,,0.00,Wunderground v.1.13,2013-08-04 06:38:00,
2013-08-04 01:42:00,56.0,49.2,30.15,NNW,331,1.0,2.0,78,0.00,,,0.00,Wunderground v.1.13,2013-08-04 06:42:00,
2013-08-04 01:45:00,55.9,49.1,30.15,NNW,331,1.0,1.0,78,0.00,,,0.00,Wunderground v.1.13,2013-08-04 06:45:00,
2013-08-04 01:46:00,55.9,49.1,30.15,NNW,331,1.0,2.0,78,0.00,,,0.00,Wunderground v.1.13,2013-08-04 06:46:00,
2013-08-04 01:47:00,55.8,49.0,30.15,NNW,331,1.0,2.0,78,0.00,,,0.00,Wunderground v.1.13,2013-08-04 06:47:00,
2013-08-04 01:48:00,55.8,49.0,30.15,NNW,331,1.0,2.0,78,0.00,,,0.00,Wunderground v.1.13,2013-08-04 06:48:00,
2013-08-04 01:50:00,55.7,48.9,30.15,NW,313,1.0,1.0,78,0.00,,,0.00,Wunderground v.1.13,2013-08-04 06:50:00,
2013-08-04 01:53:00,55.6,48.8,30.16,NW,314,1.0,2.0,78,0.00,,,0.00,Wunderground v.1.13,2013-08-04 06:53:00,
2013-08-04 01:56:00,55.5,48.8,30.16,NW,313,1.0,2.0,78,0.00,,,0.00,Wunderground v.1.13,2013-08-04 06:56:00,
2013-08-04 01:58:00,55.4,48.7,30.16,NNW,329,2.0,4.0,78,0.00,,,0.00,Wunderground v.1.13,2013-08-04 06:58:00,
2013-08-04 02:01:00,55.3,48.9,30.16,NW,317,2.0,2.0,79,0.00,,,0.00,Wunderground v.1.13,2013-08-04 07:01:00,
2013-08-04 02:02:00,55.3,48.9,30.16,NW,317,2.0,2.0,79,0.00,,,0.00,Wunderground v.1.13,2013-08-04 07:02:00,
2013-08-04 02:04:00,55.3,48.9,30.16,WNW,300,2.0,5.0,79,0.00,,,0.00,Wunderground v.1.13,2013-08-04 07:04:00,
2013-08-04 02:06:00,55.4,49.0,30.16,NW,309,2.0,3.0,79,0.00,,,0.00,Wunderground v.1.13,2013-08-04 07:06:00,
2013-08-04 02:07:00,55.5,49.1,30.16,NNW,327,2.0,3.0,79,0.00,,,0.00,Wunderground v.1.13,2013-08-04 07:07:00,
2013-08-04 02:09:00,55.5,49.1,30.16,NW,317,1.0,3.0,79,0.00,,,0.00,Wunderground v.1.13,2013-08-04 07:09:00,
2013-08-04 02:10:00,55.6,49.2,30.16,NW,306,1.0,4.0,79,0.00,,,0.00,Wunderground v.1.13,2013-08-04 07:10:00,
2013-08-04 02:13:00,55.6,49.2,30.16,NNW,330,2.0,4.0,79,0.00,,,0.00,Wunderground v.1.13,2013-08-04 07:13:00,
2013-08-04 02:15:00,55.5,49.1,30.16,WNW,295,2.0,2.0,79,0.00,,,0.00,Wunderground v.1.13,2013-08-04 07:15:00,
2013-08-04 02:19:00,55.5,49.1,30.16,NW,306,2.0,2.0,79,0.00,,,0.00,Wunderground v.1.13,2013-08-04 07:19:00,
2013-08-04 02:20:00,55.5,49.1,30.16,NW,306,2.0,2.0,79,0.00,,,0.00,Wunderground v.1.13,2013-08-04 07:20:00,
2013-08-04 02:21:00,55.4,49.0,30.16,NW,306,2.0,3.0,79,0.00,,,0.00,Wunderground v.1.13,2013-08-04 07:21:00,
2013-08-04 02:22:00,55.4,49.0,30.15,NW,306,2.0,3.0,79,0.00,,,0.00,Wunderground v.1.13,2013-08-04 07:22:00,
2013-08-04 02:24:00,55.3,48.9,30.15,NW,306,1.0,1.0,79,0.00,,,0.00,Wunderground v.1.13,2013-08-04 07:24:00,
2013-08-04 02:27:00,55.2,48.8,30.15,NW,306,1.0,1.0,79,0.00,,,0.00,Wunderground v.1.13,2013-08-04 07:27:00,
2013-08-04 02:28:00,55.2,48.8,30.15,NW,306,1.0,1.0,79,0.00,,,0.00,Wunderground v.1.13,2013-08-04 07:28:00,
2013-08-04 02:32:00,55.0,48.6,30.15,NW,306,1.0,4.0,79,0.00,,,0.00,Wunderground v.1.13,2013-08-04 07:32:00,
2013-08-04 02:33:00,54.9,48.5,30.15,NW,306,1.0,4.0,79,0.00,,,0.00,Wunderground v.1.13,2013-08-04 07:33:00,
2013-08-04 02:35:00,54.8,48.4,30.15,NW,306,0.0,0.0,79,0.00,,,0.00,Wunderground v.1.13,2013-08-04 07:35:00,
2013-08-04 02:36:00,54.8,48.4,30.15,NW,306,0.0,0.0,79,0.00,,,0.00,Wunderground v.1.13,2013-08-04 07:36:00,
2013-08-04 02:38:00,54.7,48.3,30.15,NW,306,1.0,2.0,79,0.00,,,0.00,Wunderground v.1.13,2013-08-04 07:38:00,
2013-08-04 02:40:00,54.6,48.6,30.15,NW,306,1.0,1.0,80,0.00,,,0.00,Wunderground v.1.13,2013-08-04 07:40:00,
2013-08-04 02:42:00,54.5,48.5,30.15,NW,306,1.0,2.0,80,0.00,,,0.00,Wunderground v.1.13,2013-08-04 07:42:00,
2013-08-04 02:43:00,54.5,48.5,30.15,NW,306,1.0,2.0,80,0.00,,,0.00,Wunderground v.1.13,2013-08-04 07:43:00,
2013-08-04 02:44:00,54.4,48.4,30.15,WNW,303,1.0,2.0,80,0.00,,,0.00,Wunderground v.1.13,2013-08-04 07:44:00,
2013-08-04 02:46:00,54.4,48.4,30.15,WNW,303,1.0,1.0,80,0.00,,,0.00,Wunderground v.1.13,2013-08-04 07:46:00,
2013-08-04 02:48:00,54.3,48.3,30.15,WNW,303,1.0,1.0,80,0.00,,,0.00,Wunderground v.1.13,2013-08-04 07:48:00,
2013-08-04 02:51:00,54.3,48.3,30.15,WNW,303,0.0,0.0,80,0.00,,,0.00,Wunderground v.1.13,2013-08-04 07:51:00,
2013-08-04 02:53:00,54.2,48.5,30.15,WNW,303,0.0,0.0,81,0.00,,,0.00,Wunderground v.1.13,2013-08-04 07:53:00,
2013-08-04 02:55:00,54.0,48.3,30.15,WNW,303,0.0,0.0,81,0.00,,,0.00,Wunderground v.1.13,2013-08-04 07:55:00,
2013-08-04 02:58:00,53.9,48.2,30.15,WNW,303,0.0,0.0,81,0.00,,,0.00,Wunderground v.1.13,2013-08-04 07:58:00,
2013-08-04 02:59:00,53.8,48.1,30.15,WNW,303,0.0,0.0,81,0.00,,,0.00,Wunderground v.1.13,2013-08-04 07:59:00,
2013-08-04 03:03:00,53.3,47.9,30.14,WNW,303,0.0,0.0,82,0.00,,,0.00,Wunderground v.1.13,2013-08-04 08:03:00,
2013-08-04 03:04:00,53.3,47.9,30.14,WNW,303,0.0,0.0,82,0.00,,,0.00,Wunderground v.1.13,2013-08-04 08:04:00,
2013-08-04 03:05:00,53.2,47.8,30.14,WNW,303,0.0,0.0,82,0.00,,,0.00,Wunderground v.1.13,2013-08-04 08:05:00,
2013-08-04 03:09:00,53.0,48.0,30.14,WNW,303,0.0,0.0,83,0.00,,,0.00,Wunderground v.1.13,2013-08-04 08:09:00,
2013-08-04 03:10:00,52.9,47.9,30.14,WNW,303,0.0,0.0,83,0.00,,,0.00,Wunderground v.1.13,2013-08-04 08:10:00,
2013-08-04 03:12:00,52.8,47.8,30.14,WNW,303,0.0,0.0,83,0.00,,,0.00,Wunderground v.1.13,2013-08-04 08:12:00,
2013-08-04 03:13:00,52.8,47.8,30.14,WNW,303,0.0,0.0,83,0.00,,,0.00,Wunderground v.1.13,2013-08-04 08:13:00,
2013-08-04 03:17:00,52.7,47.7,30.14,WNW,303,0.0,0.0,83,0.00,,,0.00,Wunderground v.1.13,2013-08-04 08:17:00,
2013-08-04 03:18:00,52.6,47.6,30.14,WNW,303,0.0,0.0,83,0.00,,,0.00,Wunderground v.1.13,2013-08-04 08:18:00,
2013-08-04 03:21:00,52.6,47.9,30.14,WNW,303,0.0,0.0,84,0.00,,,0.00,Wunderground v.1.13,2013-08-04 08:21:00,
2013-08-04 03:23:00,52.5,47.8,30.14,WNW,303,0.0,0.0,84,0.00,,,0.00,Wunderground v.1.13,2013-08-04 08:23:00,
2013-08-04 03:26:00,52.5,47.8,30.14,WNW,303,0.0,0.0,84,0.00,,,0.00,Wunderground v.1.13,2013-08-04 08:26:00,
2013-08-04 03:28:00,52.5,47.8,30.14,WNW,303,0.0,0.0,84,0.00,,,0.00,Wunderground v.1.13,2013-08-04 08:28:00,
2013-08-04 03:30:00,52.4,47.7,30.14,WNW,303,0.0,0.0,84,0.00,,,0.00,Wunderground v.1.13,2013-08-04 08:30:00,
2013-08-04 03:31:00,52.4,47.7,30.14,WNW,303,0.0,0.0,84,0.00,,,0.00,Wunderground v.1.13,2013-08-04 08:31:00,
2013-08-04 03:32:00,52.4,47.7,30.14,WNW,303,0.0,0.0,84,0.00,,,0.00,Wunderground v.1.13,2013-08-04 08:32:00,
2013-08-04 03:35:00,52.3,47.6,30.14,WNW,303,0.0,0.0,84,0.00,,,0.00,Wunderground v.1.13,2013-08-04 08:35:00,
2013-08-04 03:36:00,52.3,47.6,30.14,WNW,303,0.0,0.0,84,0.00,,,0.00,Wunderground v.1.13,2013-08-04 08:36:00,
2013-08-04 03:37:00,52.3,47.6,30.14,WNW,303,0.0,0.0,84,0.00,,,0.00,Wunderground v.1.13,2013-08-04 08:37:00,
2013-08-04 03:40:00,52.3,47.9,30.14,WNW,303,0.0,0.0,85,0.00,,,0.00,Wunderground v.1.13,2013-08-04 08:40:00,
2013-08-04 03:41:00,52.3,47.9,30.14,WNW,303,0.0,0.0,85,0.00,,,0.00,Wunderground v.1.13,2013-08-04 08:41:00,
2013-08-04 03:43:00,52.2,47.8,30.14,WNW,303,0.0,0.0,85,0.00,,,0.00,Wunderground v.1.13,2013-08-04 08:43:00,
2013-08-04 03:44:00,52.2,47.8,30.14,WNW,303,0.0,0.0,85,0.00,,,0.00,Wunderground v.1.13,2013-08-04 08:44:00,
2013-08-04 03:47:00,52.2,47.8,30.14,WNW,303,0.0,0.0,85,0.00,,,0.00,Wunderground v.1.13,2013-08-04 08:47:00,
2013-08-04 03:51:00,52.2,47.8,30.14,WNW,303,0.0,0.0,85,0.00,,,0.00,Wunderground v.1.13,2013-08-04 08:51:00,
2013-08-04 03:53:00,52.2,47.8,30.14,WNW,303,0.0,0.0,85,0.00,,,0.00,Wunderground v.1.13,2013-08-04 08:53:00,
2013-08-04 03:56:00,52.2,47.8,30.13,WNW,303,0.0,0.0,85,0.00,,,0.00,Wunderground v.1.13,2013-08-04 08:56:00,
2013-08-04 03:57:00,52.2,47.8,30.13,WNW,303,0.0,0.0,85,0.00,,,0.00,Wunderground v.1.13,2013-08-04 08:57:00,
2013-08-04 03:58:00,52.3,47.9,30.13,WNW,303,0.0,0.0,85,0.00,,,0.00,Wunderground v.1.13,2013-08-04 08:58:00,
2013-08-04 04:00:00,52.3,47.9,30.13,WNW,303,0.0,0.0,85,0.00,,,0.00,Wunderground v.1.13,2013-08-04 09:00:00,
2013-08-04 04:02:00,52.4,48.0,30.13,WNW,303,0.0,2.0,85,0.00,,,0.00,Wunderground v.1.13,2013-08-04 09:02:00,
2013-08-04 04:03:00,52.5,48.1,30.13,WNW,303,0.0,2.0,85,0.00,,,0.00,Wunderground v.1.13,2013-08-04 09:03:00,
2013-08-04 04:05:00,52.5,48.1,30.13,WNW,303,0.0,0.0,85,0.00,,,0.00,Wunderground v.1.13,2013-08-04 09:05:00,
2013-08-04 04:06:00,52.6,48.2,30.13,WNW,303,0.0,0.0,85,0.00,,,0.00,Wunderground v.1.13,2013-08-04 09:06:00,
2013-08-04 04:09:00,52.7,48.3,30.13,WNW,303,0.0,0.0,85,0.00,,,0.00,Wunderground v.1.13,2013-08-04 09:09:00,
2013-08-04 04:12:00,52.8,48.4,30.13,NW,310,0.0,2.0,85,0.00,,,0.00,Wunderground v.1.13,2013-08-04 09:12:00,
2013-08-04 04:13:00,52.9,48.5,30.13,NW,310,0.0,2.0,85,0.00,,,0.00,Wunderground v.1.13,2013-08-04 09:13:00,
2013-08-04 04:17:00,53.0,48.3,30.13,NW,315,1.0,1.0,84,0.00,,,0.00,Wunderground v.1.13,2013-08-04 09:17:00,
2013-08-04 04:19:00,53.0,48.3,30.13,NW,315,1.0,2.0,84,0.00,,,0.00,Wunderground v.1.13,2013-08-04 09:19:00,
2013-08-04 04:20:00,53.1,48.4,30.13,NW,315,1.0,1.0,84,0.00,,,0.00,Wunderground v.1.13,2013-08-04 09:20:00,
2013-08-04 04:23:00,53.1,48.4,30.13,NW,315,1.0,1.0,84,0.00,,,0.00,Wunderground v.1.13,2013-08-04 09:23:00,
2013-08-04 04:24:00,53.2,48.5,30.13,NW,315,1.0,1.0,84,0.00,,,0.00,Wunderground v.1.13,2013-08-04 09:24:00,
2013-08-04 04:25:00,53.2,48.2,30.13,NW,315,0.0,0.0,83,0.00,,,0.00,Wunderground v.1.13,2013-08-04 09:25:00,
2013-08-04 04:28:00,53.1,48.1,30.13,NW,315,0.0,0.0,83,0.00,,,0.00,Wunderground v.1.13,2013-08-04 09:28:00,
2013-08-04 04:29:00,53.1,48.1,30.13,NW,315,0.0,0.0,83,0.00,,,0.00,Wunderground v.1.13,2013-08-04 09:29:00,
2013-08-04 04:34:00,52.8,47.5,30.13,NW,315,0.0,0.0,82,0.00,,,0.00,Wunderground v.1.13,2013-08-04 09:34:00,
2013-08-04 04:36:00,52.6,47.3,30.13,NW,315,0.0,0.0,82,0.00,,,0.00,Wunderground v.1.13,2013-08-04 09:36:00,
2013-08-04 04:39:00,52.5,47.5,30.13,NW,315,0.0,0.0,83,0.00,,,0.00,Wunderground v.1.13,2013-08-04 09:39:00,
2013-08-04 04:41:00,52.5,47.5,30.13,NW,315,0.0,0.0,83,0.00,,,0.00,Wunderground v.1.13,2013-08-04 09:41:00,
2013-08-04 04:43:00,52.4,47.4,30.13,NW,315,0.0,0.0,83,0.00,,,0.00,Wunderground v.1.13,2013-08-04 09:43:00,
2013-08-04 04:45:00,52.3,47.3,30.13,NW,315,0.0,0.0,83,0.00,,,0.00,Wunderground v.1.13,2013-08-04 09:45:00,
2013-08-04 04:47:00,52.3,47.6,30.13,NW,323,0.0,2.0,84,0.00,,,0.00,Wunderground v.1.13,2013-08-04 09:47:00,
2013-08-04 04:50:00,52.4,47.7,30.12,NW,323,0.0,0.0,84,0.00,,,0.00,Wunderground v.1.13,2013-08-04 09:50:00,
2013-08-04 04:52:00,52.6,48.2,30.12,NNW,328,1.0,4.0,85,0.00,,,0.00,Wunderground v.1.13,2013-08-04 09:52:00,
2013-08-04 04:54:00,52.7,48.3,30.12,NNW,329,1.0,4.0,85,0.00,,,0.00,Wunderground v.1.13,2013-08-04 09:54:00,
2013-08-04 04:56:00,52.8,48.4,30.12,North,355,1.0,4.0,85,0.00,,,0.00,Wunderground v.1.13,2013-08-04 09:56:00,
2013-08-04 04:58:00,53.0,48.6,30.12,North,360,2.0,4.0,85,0.00,,,0.00,Wunderground v.1.13,2013-08-04 09:58:00,
2013-08-04 04:59:00,53.0,48.6,30.12,North,360,2.0,4.0,85,0.00,,,0.00,Wunderground v.1.13,2013-08-04 09:59:00,
2013-08-04 05:00:00,53.0,48.3,30.12,North,9,2.0,2.0,84,0.00,,,0.00,Wunderground v.1.13,2013-08-04 10:00:00,
2013-08-04 05:01:00,53.0,48.3,30.12,North,9,3.0,3.0,84,0.00,,,0.00,Wunderground v.1.13,2013-08-04 10:01:00,
2013-08-04 05:04:00,53.1,48.4,30.12,North,9,3.0,3.0,84,0.00,,,0.00,Wunderground v.1.13,2013-08-04 10:04:00,
2013-08-04 05:05:00,53.2,48.5,30.12,North,9,2.0,2.0,84,0.00,,,0.00,Wunderground v.1.13,2013-08-04 10:05:00,
2013-08-04 05:08:00,53.2,48.5,30.12,North,9,2.0,2.0,84,0.00,,,0.00,Wunderground v.1.13,2013-08-04 10:08:00,
2013-08-04 05:09:00,53.2,48.5,30.12,North,9,2.0,4.0,84,0.00,,,0.00,Wunderground v.1.13,2013-08-04 10:09:00,
2013-08-04 05:11:00,53.2,48.5,30.12,North,9,2.0,4.0,84,0.00,,,0.00,Wunderground v.1.13,2013-08-04 10:11:00,
2013-08-04 05:12:00,53.2,48.5,30.12,North,9,2.0,4.0,84,0.00,,,0.00,Wunderground v.1.13,2013-08-04 10:12:00,
2013-08-04 05:13:00,53.2,48.5,30.11,North,9,2.0,4.0,84,0.00,,,0.00,Wunderground v.1.13,2013-08-04 10:13:00,
2013-08-04 05:16:00,53.2,48.2,30.12,North,9,2.0,2.0,83,0.00,,,0.00,Wunderground v.1.13,2013-08-04 10:16:00,
2013-08-04 05:17:00,53.1,48.1,30.12,North,9,1.0,2.0,83,0.00,,,0.00,Wunderground v.1.13,2013-08-04 10:17:00,
2013-08-04 05:19:00,53.1,48.4,30.12,North,9,1.0,2.0,84,0.00,,,0.00,Wunderground v.1.13,2013-08-04 10:19:00,
2013-08-04 05:20:00,53.1,48.4,30.12,North,9,1.0,1.0,84,0.00,,,0.00,Wunderground v.1.13,2013-08-04 10:20:00,
2013-08-04 05:24:00,53.1,48.4,30.12,North,11,1.0,3.0,84,0.00,,,0.00,Wunderground v.1.13,2013-08-04 10:24:00,
2013-08-04 05:25:00,53.1,48.4,30.12,North,11,1.0,2.0,84,0.00,,,0.00,Wunderground v.1.13,2013-08-04 10:25:00,
2013-08-04 05:27:00,53.0,48.3,30.12,North,11,1.0,2.0,84,0.00,,,0.00,Wunderground v.1.13,2013-08-04 10:27:00,
2013-08-04 05:28:00,53.0,48.3,30.12,North,11,1.0,2.0,84,0.00,,,0.00,Wunderground v.1.13,2013-08-04 10:28:00,
2013-08-04 05:29:00,53.0,48.3,30.12,North,11,1.0,2.0,84,0.00,,,0.00,Wunderground v.1.13,2013-08-04 10:29:00,
2013-08-04 05:30:00,52.8,47.8,30.12,North,11,1.0,1.0,83,0.00,,,0.00,Wunderground v.1.13,2013-08-04 10:30:00,
2013-08-04 05:33:00,52.6,47.3,30.13,North,11,1.0,1.0,82,0.00,,,0.00,Wunderground v.1.13,2013-08-04 10:33:00,
2013-08-04 05:38:00,51.9,46.9,30.13,NW,309,1.0,3.0,83,0.00,,,0.00,Wunderground v.1.13,2013-08-04 10:38:00,
2013-08-04 05:40:00,51.6,46.9,30.14,NW,309,1.0,1.0,84,0.00,,,0.00,Wunderground v.1.13,2013-08-04 10:40:00,
2013-08-04 05:41:00,51.6,46.6,30.13,NW,309,1.0,1.0,83,0.00,,,0.00,Wunderground v.1.13,2013-08-04 10:41:00,
2013-08-04 05:43:00,51.4,46.7,30.14,NW,309,2.0,2.0,84,0.00,,,0.00,Wunderground v.1.13,2013-08-04 10:43:00,
2013-08-04 05:44:00,51.3,46.6,30.14,NW,309,2.0,2.0,84,0.00,,,0.00,Wunderground v.1.13,2013-08-04 10:44:00,
2013-08-04 05:46:00,51.1,46.4,30.14,NW,309,1.0,2.0,84,0.00,,,0.00,Wunderground v.1.13,2013-08-04 10:46:00,
2013-08-04 05:49:00,50.9,46.6,30.14,NW,309,1.0,2.0,85,0.00,,,0.00,Wunderground v.1.13,2013-08-04 10:49:00,
2013-08-04 05:52:00,50.7,46.4,30.14,NW,309,1.0,1.0,85,0.00,,,0.00,Wunderground v.1.13,2013-08-04 10:52:00,
2013-08-04 05:54:00,50.6,46.6,30.14,NW,309,1.0,1.0,86,0.00,,,0.00,Wunderground v.1.13,2013-08-04 10:54:00,
2013-08-04 05:55:00,50.6,46.6,30.14,NW,309,1.0,1.0,86,0.00,,,0.00,Wunderground v.1.13,2013-08-04 10:55:00,
2013-08-04 05:57:00,50.7,46.7,30.15,NW,309,1.0,1.0,86,0.00,,,0.00,Wunderground v.1.13,2013-08-04 10:57:00,
2013-08-04 05:59:00,50.7,46.7,30.15,NW,309,0.0,1.0,86,0.00,,,0.00,Wunderground v.1.13,2013-08-04 10:59:00,
2013-08-04 06:00:00,50.7,46.7,30.15,NW,309,0.0,0.0,86,0.00,,,0.00,Wunderground v.1.13,2013-08-04 11:00:00,
2013-08-04 06:04:00,50.8,46.8,30.15,NW,309,0.0,2.0,86,0.00,,,0.00,Wunderground v.1.13,2013-08-04 11:04:00,
2013-08-04 06:06:00,50.8,46.8,30.14,NW,309,0.0,0.0,86,0.00,,,0.00,Wunderground v.1.13,2013-08-04 11:06:00,
2013-08-04 06:07:00,50.8,46.8,30.14,NW,309,0.0,0.0,86,0.00,,,0.00,Wunderground v.1.13,2013-08-04 11:07:00,
2013-08-04 06:12:00,50.9,46.9,30.14,NW,309,0.0,0.0,86,0.00,,,0.00,Wunderground v.1.13,2013-08-04 11:12:00,
2013-08-04 06:14:00,51.0,47.3,30.14,NW,309,0.0,0.0,87,0.00,,,0.00,Wunderground v.1.13,2013-08-04 11:14:00,
2013-08-04 06:15:00,51.0,47.3,30.14,NW,309,0.0,0.0,87,0.00,,,0.00,Wunderground v.1.13,2013-08-04 11:15:00,
2013-08-04 06:17:00,51.1,47.4,30.14,NW,309,0.0,0.0,87,0.00,,,0.00,Wunderground v.1.13,2013-08-04 11:17:00,
2013-08-04 06:19:00,51.2,47.5,30.14,NW,314,0.0,1.0,87,0.00,,,0.00,Wunderground v.1.13,2013-08-04 11:19:00,
2013-08-04 06:21:00,51.3,47.6,30.14,NW,314,0.0,1.0,87,0.00,,,0.00,Wunderground v.1.13,2013-08-04 11:21:00,
2013-08-04 06:25:00,51.7,48.0,30.14,NW,314,1.0,1.0,87,0.00,,,0.00,Wunderground v.1.13,2013-08-04 11:25:00,
2013-08-04 06:27:00,51.8,48.1,30.13,North,360,1.0,3.0,87,0.00,,,0.00,Wunderground v.1.13,2013-08-04 11:27:00,
2013-08-04 06:30:00,52.1,48.0,30.13,North,11,1.0,4.0,86,0.00,,,0.00,Wunderground v.1.13,2013-08-04 11:30:00,
2013-08-04 06:31:00,52.2,48.4,30.13,NNE,18,2.0,4.0,87,0.00,,,0.00,Wunderground v.1.13,2013-08-04 11:31:00,
2013-08-04 06:32:00,52.3,48.5,30.13,NNE,24,2.0,5.0,87,0.00,,,0.00,Wunderground v.1.13,2013-08-04 11:32:00,
2013-08-04 06:33:00,52.4,48.3,30.13,NNE,25,2.0,5.0,86,0.00,,,0.00,Wunderground v.1.13,2013-08-04 11:33:00,
2013-08-04 06:36:00,52.5,48.4,30.13,NNE,26,3.0,5.0,86,0.00,,,0.00,Wunderground v.1.13,2013-08-04 11:36:00,
2013-08-04 06:38:00,52.6,48.2,30.13,NNE,26,3.0,5.0,85,0.00,,,0.00,Wunderground v.1.13,2013-08-04 11:38:00,
2013-08-04 06:41:00,52.8,48.4,30.13,NNE,28,3.0,3.0,85,0.00,,,0.00,Wunderground v.1.13,2013-08-04 11:41:00,
2013-08-04 06:42:00,52.9,48.5,30.13,NNE,33,3.0,3.0,85,0.00,,,0.00,Wunderground v.1.13,2013-08-04 11:42:00,
2013-08-04 06:43:00,52.9,48.5,30.13,NE,48,2.0,3.0,85,0.00,,,0.00,Wunderground v.1.13,2013-08-04 11:43:00,
2013-08-04 06:45:00,53.0,48.3,30.13,NE,49,2.0,5.0,84,0.00,,,0.00,Wunderground v.1.13,2013-08-04 11:45:00,
2013-08-04 06:47:00,53.1,48.4,30.13,NE,49,2.0,5.0,84,0.00,,,0.00,Wunderground v.1.13,2013-08-04 11:47:00,
2013-08-04 06:49:00,53.2,48.5,30.13,NE,38,3.0,5.0,84,0.00,,,0.00,Wunderground v.1.13,2013-08-04 11:49:00,
2013-08-04 06:50:00,53.2,48.5,30.13,NE,38,3.0,5.0,84,0.00,,,0.00,Wunderground v.1.13,2013-08-04 11:50:00,
2013-08-04 06:52:00,53.4,48.7,30.14,NNE,33,3.0,5.0,84,0.00,,,0.00,Wunderground v.1.13,2013-08-04 11:52:00,
2013-08-04 06:53:00,53.4,48.7,30.13,NE,37,4.0,5.0,84,0.00,,,0.00,Wunderground v.1.13,2013-08-04 11:53:00,
2013-08-04 06:56:00,53.5,48.5,30.13,NE,44,3.0,6.0,83,0.00,,,0.00,Wunderground v.1.13,2013-08-04 11:56:00,
2013-08-04 06:58:00,53.6,48.6,30.13,NE,41,3.0,6.0,83,0.00,,,0.00,Wunderground v.1.13,2013-08-04 11:58:00,
2013-08-04 06:59:00,53.7,48.7,30.13,NNE,33,3.0,3.0,83,0.00,,,0.00,Wunderground v.1.13,2013-08-04 11:59:00,
2013-08-04 07:03:00,53.9,48.9,30.14,NNE,28,2.0,4.0,83,0.00,,,0.00,Wunderground v.1.13,2013-08-04 12:03:00,
2013-08-04 07:05:00,54.0,49.0,30.14,NE,45,3.0,3.0,83,0.00,,,0.00,Wunderground v.1.13,2013-08-04 12:05:00,
2013-08-04 07:07:00,54.2,49.1,30.14,NE,43,3.0,4.0,83,0.00,,,0.00,Wunderground v.1.13,2013-08-04 12:07:00,
2013-08-04 07:08:00,54.4,49.3,30.14,NE,40,3.0,5.0,83,0.00,,,0.00,Wunderground v.1.13,2013-08-04 12:08:00,
2013-08-04 07:12:00,54.7,49.3,30.14,NE,40,3.0,4.0,82,0.00,,,0.00,Wunderground v.1.13,2013-08-04 12:12:00,
2013-08-04 07:13:00,54.7,49.3,30.14,NE,55,3.0,4.0,82,0.00,,,0.00,Wunderground v.1.13,2013-08-04 12:13:00,
2013-08-04 07:14:00,54.9,49.5,30.14,ENE,57,3.0,5.0,82,0.00,,,0.00,Wunderground v.1.13,2013-08-04 12:14:00,
2013-08-04 07:17:00,55.0,49.6,30.14,NE,47,3.0,5.0,82,0.00,,,0.00,Wunderground v.1.13,2013-08-04 12:17:00,
2013-08-04 07:18:00,55.1,49.7,30.14,NE,46,3.0,5.0,82,0.00,,,0.00,Wunderground v.1.13,2013-08-04 12:18:00,
2013-08-04 07:23:00,55.4,49.7,30.14,NE,46,3.0,5.0,81,0.00,,,0.00,Wunderground v.1.13,2013-08-04 12:23:00,
2013-08-04 07:24:00,55.3,49.6,30.14,NE,36,3.0,5.0,81,0.00,,,0.00,Wunderground v.1.13,2013-08-04 12:24:00,
2013-08-04 07:25:00,55.3,49.6,30.14,ENE,58,4.0,7.0,81,0.00,,,0.00,Wunderground v.1.13,2013-08-04 12:25:00,
2013-08-04 07:27:00,55.2,49.5,30.14,NE,49,4.0,7.0,81,0.00,,,0.00,Wunderground v.1.13,2013-08-04 12:27:00,
2013-08-04 07:28:00,55.2,49.5,30.14,NE,48,5.0,7.0,81,0.00,,,0.00,Wunderground v.1.13,2013-08-04 12:28:00,
2013-08-04 07:30:00,55.3,49.9,30.14,NNE,21,5.0,5.0,82,0.00,,,0.00,Wunderground v.1.13,2013-08-04 12:30:00,
2013-08-04 07:32:00,55.3,49.9,30.14,NNE,27,5.0,5.0,82,0.00,,,0.00,Wunderground v.1.13,2013-08-04 12:32:00,
2013-08-04 07:33:00,55.4,50.0,30.14,NE,41,5.0,5.0,82,0.00,,,0.00,Wunderground v.1.13,2013-08-04 12:33:00,
2013-08-04 07:35:00,55.4,50.0,30.14,NE,36,4.0,4.0,82,0.00,,,0.00,Wunderground v.1.13,2013-08-04 12:35:00,
2013-08-04 07:38:00,55.5,50.1,30.14,NE,49,3.0,4.0,82,0.00,,,0.00,Wunderground v.1.13,2013-08-04 12:38:00,
2013-08-04 07:40:00,55.6,50.2,30.14,NE,34,3.0,3.0,82,0.00,,,0.00,Wunderground v.1.13,2013-08-04 12:40:00,
2013-08-04 07:41:00,55.7,50.3,30.15,NNE,33,3.0,3.0,82,0.00,,,0.00,Wunderground v.1.13,2013-08-04 12:41:00,
2013-08-04 07:43:00,55.8,50.4,30.15,NE,47,3.0,5.0,82,0.00,,,0.00,Wunderground v.1.13,2013-08-04 12:43:00,
2013-08-04 07:45:00,55.9,50.5,30.15,NE,48,3.0,4.0,82,0.00,,,0.00,Wunderground v.1.13,2013-08-04 12:45:00,
2013-08-04 07:46:00,56.0,50.6,30.15,NE,40,3.0,4.0,82,0.00,,,0.00,Wunderground v.1.13,2013-08-04 12:46:00,
2013-08-04 07:51:00,56.4,50.6,30.15,ENE,68,3.0,4.0,81,0.00,,,0.00,Wunderground v.1.13,2013-08-04 12:51:00,
2013-08-04 07:53:00,56.4,50.6,30.15,ENE,62,3.0,4.0,81,0.00,,,0.00,Wunderground v.1.13,2013-08-04 12:53:00,
2013-08-04 07:54:00,56.6,50.8,30.15,ENE,74,2.0,2.0,81,0.00,,,0.00,Wunderground v.1.13,2013-08-04 12:54:00,
2013-08-04 07:58:00,56.8,51.0,30.15,East,87,2.0,2.0,81,0.00,,,0.00,Wunderground v.1.13,2013-08-04 12:58:00,
2013-08-04 07:59:00,56.8,51.0,30.15,East,87,2.0,2.0,81,0.00,,,0.00,Wunderground v.1.13,2013-08-04 12:59:00,
2013-08-04 08:00:00,56.9,51.1,30.15,ENE,70,2.0,2.0,81,0.00,,,0.00,Wunderground v.1.13,2013-08-04 13:00:00,
2013-08-04 08:02:00,57.0,50.9,30.16,ESE,116,1.0,2.0,80,0.00,,,0.00,Wunderground v.1.13,2013-08-04 13:02:00,
2013-08-04 08:03:00,57.0,50.9,30.17,ESE,114,1.0,2.0,80,0.00,,,0.00,Wunderground v.1.13,2013-08-04 13:03:00,
2013-08-04 08:05:00,57.1,51.3,30.17,ESE,113,1.0,1.0,81,0.00,,,0.00,Wunderground v.1.13,2013-08-04 13:05:00,
2013-08-04 08:10:00,57.4,51.3,30.17,ESE,113,1.0,1.0,80,0.00,,,0.00,Wunderground v.1.13,2013-08-04 13:10:00,
2013-08-04 08:11:00,57.4,51.3,30.17,ESE,113,0.0,1.0,80,0.00,,,0.00,Wunderground v.1.13,2013-08-04 13:11:00,
2013-08-04 08:12:00,57.5,51.4,30.17,ESE,113,0.0,1.0,80,0.00,,,0.00,Wunderground v.1.13,2013-08-04 13:12:00,
2013-08-04 08:14:00,57.7,51.6,30.17,ESE,113,0.0,1.0,80,0.00,,,0.00,Wunderground v.1.13,2013-08-04 13:14:00,
2013-08-04 08:16:00,57.9,51.4,30.17,ESE,113,0.0,0.0,79,0.00,,,0.00,Wunderground v.1.13,2013-08-04 13:16:00,
2013-08-04 08:20:00,58.2,51.7,30.17,ESE,113,0.0,0.0,79,0.00,,,0.00,Wunderground v.1.13,2013-08-04 13:20:00,
2013-08-04 08:21:00,58.3,51.8,30.17,ESE,113,0.0,0.0,79,0.00,,,0.00,Wunderground v.1.13,2013-08-04 13:21:00,
2013-08-04 08:22:00,58.4,51.9,30.17,ESE,113,0.0,0.0,79,0.00,,,0.00,Wunderground v.1.13,2013-08-04 13:22:00,
2013-08-04 08:25:00,58.6,52.1,30.17,ESE,113,0.0,0.0,79,0.00,,,0.00,Wunderground v.1.13,2013-08-04 13:25:00,
2013-08-04 08:26:00,58.8,52.0,30.17,ESE,113,0.0,0.0,78,0.00,,,0.00,Wunderground v.1.13,2013-08-04 13:26:00,
2013-08-04 08:29:00,59.0,52.1,30.17,ESE,113,0.0,6.0,78,0.00,,,0.00,Wunderground v.1.13,2013-08-04 13:29:00,
2013-08-04 08:30:00,59.2,52.7,30.17,ESE,113,0.0,0.0,79,0.00,,,0.00,Wunderground v.1.13,2013-08-04 13:30:00,
2013-08-04 08:32:00,59.4,52.5,30.17,ESE,113,0.0,0.0,78,0.00,,,0.00,Wunderground v.1.13,2013-08-04 13:32:00,
2013-08-04 08:33:00,59.4,52.5,30.17,ESE,113,0.0,0.0,78,0.00,,,0.00,Wunderground v.1.13,2013-08-04 13:33:00,
2013-08-04 08:36:00,59.4,52.5,30.17,ESE,113,0.0,2.0,78,0.00,,,0.00,Wunderground v.1.13,2013-08-04 13:36:00,
2013-08-04 08:37:00,59.4,52.2,30.17,ESE,113,1.0,2.0,77,0.00,,,0.00,Wunderground v.1.13,2013-08-04 13:37:00,
2013-08-04 08:38:00,59.4,52.2,30.17,ESE,113,1.0,2.0,77,0.00,,,0.00,Wunderground v.1.13,2013-08-04 13:38:00,
2013-08-04 08:39:00,59.4,52.2,30.17,ESE,113,1.0,2.0,77,0.00,,,0.00,Wunderground v.1.13,2013-08-04 13:39:00,
2013-08-04 08:42:00,59.4,52.2,30.17,ESE,113,1.0,1.0,77,0.00,,,0.00,Wunderground v.1.13,2013-08-04 13:42:00,
2013-08-04 08:43:00,59.5,52.3,30.17,ESE,113,1.0,1.0,77,0.00,,,0.00,Wunderground v.1.13,2013-08-04 13:43:00,
2013-08-04 08:45:00,59.8,52.9,30.17,ESE,113,1.0,1.0,78,0.00,,,0.00,Wunderground v.1.13,2013-08-04 13:45:00,
2013-08-04 08:46:00,59.9,52.7,30.17,ESE,113,1.0,1.0,77,0.00,,,0.00,Wunderground v.1.13,2013-08-04 13:46:00,
2013-08-04 08:49:00,60.1,52.9,30.17,ESE,113,0.0,1.0,77,0.00,,,0.00,Wunderground v.1.13,2013-08-04 13:49:00,
2013-08-04 08:51:00,60.2,53.0,30.17,ESE,113,0.0,0.0,77,0.00,,,0.00,Wunderground v.1.13,2013-08-04 13:51:00,
2013-08-04 08:53:00,60.3,52.7,30.17,ESE,113,1.0,1.0,76,0.00,,,0.00,Wunderground v.1.13,2013-08-04 13:53:00,
2013-08-04 08:54:00,60.3,53.1,30.17,ESE,113,1.0,1.0,77,0.00,,,0.00,Wunderground v.1.13,2013-08-04 13:54:00,
2013-08-04 08:55:00,60.3,52.7,30.17,ESE,113,1.0,1.0,76,0.00,,,0.00,Wunderground v.1.13,2013-08-04 13:55:00,
2013-08-04 08:58:00,60.3,53.1,30.17,ESE,113,0.0,1.0,77,0.00,,,0.00,Wunderground v.1.13,2013-08-04 13:58:00,
2013-08-04 08:59:00,60.3,52.7,30.17,ESE,113,0.0,1.0,76,0.00,,,0.00,Wunderground v.1.13,2013-08-04 13:59:00,
2013-08-04 09:00:00,60.3,52.7,30.17,ESE,113,0.0,0.0,76,0.00,,,0.00,Wunderground v.1.13,2013-08-04 14:00:00,
2013-08-04 09:01:00,60.4,52.8,30.17,ESE,113,0.0,0.0,76,0.00,,,0.00,Wunderground v.1.13,2013-08-04 14:01:00,
2013-08-04 09:05:00,60.4,53.2,30.17,ESE,113,0.0,0.0,77,0.00,,,0.00,Wunderground v.1.13,2013-08-04 14:05:00,
2013-08-04 09:06:00,60.5,53.3,30.17,ESE,113,0.0,2.0,77,0.00,,,0.00,Wunderground v.1.13,2013-08-04 14:06:00,
2013-08-04 09:09:00,60.5,53.3,30.17,ESE,113,1.0,2.0,77,0.00,,,0.00,Wunderground v.1.13,2013-08-04 14:09:00,
2013-08-04 09:10:00,60.5,53.6,30.16,ESE,113,1.0,1.0,78,0.00,,,0.00,Wunderground v.1.13,2013-08-04 14:10:00,
2013-08-04 09:13:00,60.7,53.8,30.16,ESE,113,1.0,2.0,78,0.00,,,0.00,Wunderground v.1.13,2013-08-04 14:13:00,
2013-08-04 09:15:00,60.8,53.5,30.16,ESE,113,1.0,1.0,77,0.00,,,0.00,Wunderground v.1.13,2013-08-04 14:15:00,
2013-08-04 09:16:00,60.9,53.6,30.16,ESE,113,1.0,2.0,77,0.00,,,0.00,Wunderground v.1.13,2013-08-04 14:16:00,
2013-08-04 09:18:00,61.1,53.8,30.16,ESE,113,1.0,2.0,77,0.00,,,0.00,Wunderground v.1.13,2013-08-04 14:18:00,
2013-08-04 09:19:00,61.1,53.8,30.16,ESE,113,1.0,4.0,77,0.00,,,0.00,Wunderground v.1.13,2013-08-04 14:19:00,
2013-08-04 09:20:00,61.1,53.5,30.16,ESE,113,1.0,5.0,76,0.00,,,0.00,Wunderground v.1.13,2013-08-04 14:20:00,
2013-08-04 09:21:00,61.2,53.6,30.16,ESE,113,2.0,5.0,76,0.00,,,0.00,Wunderground v.1.13,2013-08-04 14:21:00,
2013-08-04 09:26:00,61.3,53.7,30.16,SE,128,3.0,8.0,76,0.00,,,0.00,Wunderground v.1.13,2013-08-04 14:26:00,
2013-08-04 09:30:00,61.6,53.6,30.16,ESE,112,4.0,4.0,75,0.00,,,0.00,Wunderground v.1.13,2013-08-04 14:30:00,
2013-08-04 09:31:00,61.6,53.6,30.16,ESE,115,4.0,6.0,75,0.00,,,0.00,Wunderground v.1.13,2013-08-04 14:31:00,
2013-08-04 09:32:00,61.7,54.1,30.16,ESE,115,4.0,6.0,76,0.00,,,0.00,Wunderground v.1.13,2013-08-04 14:32:00,
2013-08-04 09:33:00,61.8,54.2,30.16,ESE,114,5.0,6.0,76,0.00,,,0.00,Wunderground v.1.13,2013-08-04 14:33:00,
2013-08-04 09:34:00,61.9,53.9,30.16,ESE,112,5.0,6.0,75,0.00,,,0.00,Wunderground v.1.13,2013-08-04 14:34:00,
2013-08-04 09:38:00,62.1,53.7,30.15,ESE,112,4.0,7.0,74,0.00,,,0.00,Wunderground v.1.13,2013-08-04 14:38:00,
2013-08-04 09:39:00,62.2,54.2,30.15,ESE,112,4.0,7.0,75,0.00,,,0.00,Wunderground v.1.13,2013-08-04 14:39:00,
2013-08-04 09:41:00,62.4,54.0,30.15,ESE,113,4.0,5.0,74,0.00,,,0.00,Wunderground v.1.13,2013-08-04 14:41:00,
2013-08-04 09:43:00,62.4,54.4,30.15,ESE,113,4.0,5.0,75,0.00,,,0.00,Wunderground v.1.13,2013-08-04 14:43:00,
2013-08-04 09:46:00,62.5,54.5,30.15,ESE,115,4.0,6.0,75,0.00,,,0.00,Wunderground v.1.13,2013-08-04 14:46:00,
2013-08-04 09:49:00,62.5,54.1,30.15,ESE,115,4.0,6.0,74,0.00,,,0.00,Wunderground v.1.13,2013-08-04 14:49:00,
2013-08-04 09:52:00,62.7,54.3,30.14,ESE,117,4.0,6.0,74,0.00,,,0.00,Wunderground v.1.13,2013-08-04 14:52:00,
2013-08-04 09:54:00,62.7,53.9,30.14,East,88,4.0,6.0,73,0.00,,,0.00,Wunderground v.1.13,2013-08-04 14:54:00,
2013-08-04 09:55:00,62.7,54.3,30.14,East,88,4.0,5.0,74,0.00,,,0.00,Wunderground v.1.13,2013-08-04 14:55:00,
2013-08-04 09:57:00,62.9,54.9,30.14,East,92,4.0,5.0,75,0.00,,,0.00,Wunderground v.1.13,2013-08-04 14:57:00,
2013-08-04 09:58:00,62.9,54.5,30.14,East,92,4.0,5.0,74,0.00,,,0.00,Wunderground v.1.13,2013-08-04 14:58:00,
2013-08-04 10:02:00,63.3,54.9,30.14,East,94,3.0,5.0,74,0.00,,,0.00,Wunderground v.1.13,2013-08-04 15:02:00,
2013-08-04 10:05:00,63.5,54.7,30.14,East,93,3.0,4.0,73,0.00,,,0.00,Wunderground v.1.13,2013-08-04 15:05:00,
2013-08-04 10:10:00,63.9,55.1,30.14,ESE,107,4.0,4.0,73,0.00,,,0.00,Wunderground v.1.13,2013-08-04 15:10:00,
2013-08-04 10:12:00,64.0,54.4,30.14,ESE,105,4.0,7.0,71,0.00,,,0.00,Wunderground v.1.13,2013-08-04 15:12:00,
2013-08-04 10:13:00,64.1,54.5,30.14,ESE,113,4.0,7.0,71,0.00,,,0.00,Wunderground v.1.13,2013-08-04 15:13:00,
2013-08-04 10:17:00,64.7,55.1,30.13,ESE,106,5.0,7.0,71,0.00,,,0.00,Wunderground v.1.13,2013-08-04 15:17:00,
2013-08-04 10:19:00,64.7,54.7,30.14,ESE,103,5.0,10.0,70,0.00,,,0.00,Wunderground v.1.13,2013-08-04 15:19:00,
2013-08-04 10:20:00,64.8,54.8,30.13,North,5,5.0,10.0,70,0.00,,,0.00,Wunderground v.1.13,2013-08-04 15:20:00,
2013-08-04 10:24:00,65.1,55.1,30.14,East,91,4.0,5.0,70,0.00,,,0.00,Wunderground v.1.13,2013-08-04 15:24:00,
2013-08-04 10:26:00,65.3,54.5,30.13,ESE,110,4.0,5.0,68,0.00,,,0.00,Wunderground v.1.13,2013-08-04 15:26:00,
2013-08-04 10:28:00,65.4,54.6,30.14,ESE,119,4.0,5.0,68,0.00,,,0.00,Wunderground v.1.13,2013-08-04 15:28:00,
2013-08-04 10:32:00,65.9,55.4,30.13,ESE,114,5.0,6.0,69,0.00,,,0.00,Wunderground v.1.13,2013-08-04 15:32:00,
2013-08-04 10:33:00,66.1,55.6,30.13,ESE,103,5.0,6.0,69,0.00,,,0.00,Wunderground v.1.13,2013-08-04 15:33:00,
2013-08-04 10:34:00,66.2,54.9,30.14,SE,125,5.0,6.0,67,0.00,,,0.00,Wunderground v.1.13,2013-08-04 15:34:00,
2013-08-04 10:37:00,66.3,54.6,30.13,SE,128,6.0,8.0,66,0.00,,,0.00,Wunderground v.1.13,2013-08-04 15:37:00,
2013-08-04 10:38:00,66.4,54.7,30.13,ESE,111,6.0,8.0,66,0.00,,,0.00,Wunderground v.1.13,2013-08-04 15:38:00,
2013-08-04 10:40:00,66.2,54.5,30.13,ESE,115,6.0,6.0,66,0.00,,,0.00,Wunderground v.1.13,2013-08-04 15:40:00,
2013-08-04 10:42:00,66.2,54.5,30.13,ESE,111,7.0,8.0,66,0.00,,,0.00,Wunderground v.1.13,2013-08-04 15:42:00,
2013-08-04 10:43:00,66.3,55.0,30.13,ESE,119,7.0,9.0,67,0.00,,,0.00,Wunderground v.1.13,2013-08-04 15:43:00,
2013-08-04 10:44:00,66.3,54.2,30.13,East,101,7.0,9.0,65,0.00,,,0.00,Wunderground v.1.13,2013-08-04 15:44:00,
2013-08-04 10:48:00,66.8,55.1,30.13,ESE,114,7.0,9.0,66,0.00,,,0.00,Wunderground v.1.13,2013-08-04 15:48:00,
2013-08-04 10:50:00,66.9,55.2,30.13,ESE,122,7.0,9.0,66,0.00,,,0.00,Wunderground v.1.13,2013-08-04 15:50:00,
2013-08-04 10:51:00,66.9,54.7,30.13,ESE,117,7.0,7.0,65,0.00,,,0.00,Wunderground v.1.13,2013-08-04 15:51:00,
2013-08-04 10:53:00,66.9,54.7,30.13,SE,141,7.0,7.0,65,0.00,,,0.00,Wunderground v.1.13,2013-08-04 15:53:00,
2013-08-04 10:54:00,67.2,55.0,30.13,ESE,116,6.0,8.0,65,0.00,,,0.00,Wunderground v.1.13,2013-08-04 15:54:00,
2013-08-04 10:56:00,67.3,55.1,30.13,ESE,113,6.0,8.0,65,0.00,,,0.00,Wunderground v.1.13,2013-08-04 15:56:00,
2013-08-04 11:00:00,67.7,55.1,30.13,SSW,202,5.0,5.0,64,0.00,,,0.00,Wunderground v.1.13,2013-08-04 16:00:00,
2013-08-04 11:03:00,67.9,54.8,30.13,ESE,116,5.0,6.0,63,0.00,,,0.00,Wunderground v.1.13,2013-08-04 16:03:00,
2013-08-04 11:07:00,67.9,54.8,30.13,SE,125,5.0,9.0,63,0.00,,,0.00,Wunderground v.1.13,2013-08-04 16:07:00,
2013-08-04 11:09:00,68.0,55.4,30.12,ESE,119,5.0,9.0,64,0.00,,,0.00,Wunderground v.1.13,2013-08-04 16:09:00,
2013-08-04 11:10:00,67.9,54.8,30.13,South,177,5.0,5.0,63,0.00,,,0.00,Wunderground v.1.13,2013-08-04 16:10:00,
2013-08-04 11:13:00,68.5,55.8,30.13,ESE,115,5.0,10.0,64,0.00,,,0.00,Wunderground v.1.13,2013-08-04 16:13:00,
2013-08-04 11:15:00,68.5,55.0,30.13,ESE,117,5.0,6.0,62,0.00,,,0.00,Wunderground v.1.13,2013-08-04 16:15:00,
2013-08-04 11:16:00,68.4,54.9,30.13,ESE,121,5.0,7.0,62,0.00,,,0.00,Wunderground v.1.13,2013-08-04 16:16:00,
2013-08-04 11:17:00,68.3,54.8,30.13,SE,124,6.0,7.0,62,0.00,,,0.00,Wunderground v.1.13,2013-08-04 16:17:00,
2013-08-04 11:20:00,68.5,55.4,30.12,ESE,122,5.0,5.0,63,0.00,,,0.00,Wunderground v.1.13,2013-08-04 16:20:00,
2013-08-04 11:22:00,68.6,55.1,30.12,ESE,121,5.0,6.0,62,0.00,,,0.00,Wunderground v.1.13,2013-08-04 16:22:00,
2013-08-04 11:23:00,68.6,54.6,30.12,SE,132,5.0,6.0,61,0.00,,,0.00,Wunderground v.1.13,2013-08-04 16:23:00,
2013-08-04 11:25:00,68.8,55.2,30.12,ESE,119,5.0,6.0,62,0.00,,,0.00,Wunderground v.1.13,2013-08-04 16:25:00,
2013-08-04 11:27:00,68.8,54.8,30.12,ESE,112,4.0,6.0,61,0.00,,,0.00,Wunderground v.1.13,2013-08-04 16:27:00,
2013-08-04 11:29:00,68.8,54.8,30.12,ESE,112,4.0,9.0,61,0.00,,,0.00,Wunderground v.1.13,2013-08-04 16:29:00,
2013-08-04 11:31:00,68.9,54.9,30.12,ESE,113,4.0,4.0,61,0.00,,,0.00,Wunderground v.1.13,2013-08-04 16:31:00,
2013-08-04 11:32:00,69.0,54.5,30.12,East,97,3.0,7.0,60,0.00,,,0.00,Wunderground v.1.13,2013-08-04 16:32:00,
2013-08-04 11:34:00,69.1,54.6,30.12,ESE,111,4.0,7.0,60,0.00,,,0.00,Wunderground v.1.13,2013-08-04 16:34:00,
2013-08-04 11:36:00,69.4,55.8,30.12,ESE,117,4.0,5.0,62,0.00,,,0.00,Wunderground v.1.13,2013-08-04 16:36:00,
2013-08-04 11:38:00,69.6,55.1,30.12,ESE,119,4.0,5.0,60,0.00,,,0.00,Wunderground v.1.13,2013-08-04 16:38:00,
2013-08-04 11:39:00,69.7,54.7,30.12,ESE,119,4.0,5.0,59,0.00,,,0.00,Wunderground v.1.13,2013-08-04 16:39:00,
2013-08-04 11:43:00,70.0,55.0,30.12,ESE,113,4.0,5.0,59,0.00,,,0.00,Wunderground v.1.13,2013-08-04 16:43:00,
2013-08-04 11:45:00,70.2,55.7,30.12,ESE,113,4.0,4.0,60,0.00,,,0.00,Wunderground v.1.13,2013-08-04 16:45:00,
2013-08-04 11:47:00,70.2,54.7,30.12,ESE,113,3.0,4.0,58,0.00,,,0.00,Wunderground v.1.13,2013-08-04 16:47:00,
2013-08-04 11:48:00,70.2,54.7,30.12,ESE,113,3.0,4.0,58,0.00,,,0.00,Wunderground v.1.13,2013-08-04 16:48:00,
2013-08-04 11:49:00,70.4,55.8,30.12,ESE,107,3.0,7.0,60,0.00,,,0.00,Wunderground v.1.13,2013-08-04 16:49:00,
2013-08-04 11:50:00,70.4,55.4,30.12,ESE,118,3.0,4.0,59,0.00,,,0.00,Wunderground v.1.13,2013-08-04 16:50:00,
2013-08-04 11:53:00,70.2,54.7,30.12,ESE,122,3.0,5.0,58,0.00,,,0.00,Wunderground v.1.13,2013-08-04 16:53:00,
2013-08-04 11:56:00,70.7,55.2,30.11,ESE,122,3.0,3.0,58,0.00,,,0.00,Wunderground v.1.13,2013-08-04 16:56:00,
2013-08-04 11:58:00,71.0,55.5,30.11,ESE,122,3.0,3.0,58,0.00,,,0.00,Wunderground v.1.13,2013-08-04 16:58:00,
2013-08-04 12:00:00,71.4,55.4,30.11,ESE,113,3.0,4.0,57,0.00,,,0.00,Wunderground v.1.13,2013-08-04 17:00:00,
2013-08-04 12:04:00,71.7,54.7,30.11,NNE,27,2.0,4.0,55,0.00,,,0.00,Wunderground v.1.13,2013-08-04 17:04:00,
2013-08-04 12:05:00,71.7,53.7,30.11,NNE,32,2.0,2.0,53,0.00,,,0.00,Wunderground v.1.13,2013-08-04 17:05:00,
2013-08-04 12:07:00,71.7,53.7,30.10,NE,38,2.0,4.0,53,0.00,,,0.00,Wunderground v.1.13,2013-08-04 17:07:00,
2013-08-04 12:08:00,71.5,53.5,30.10,ESE,103,2.0,4.0,53,0.00,,,0.00,Wunderground v.1.13,2013-08-04 17:08:00,
2013-08-04 12:11:00,71.2,54.7,30.10,ESE,111,2.0,4.0,56,0.00,,,0.00,Wunderground v.1.13,2013-08-04 17:11:00,
2013-08-04 12:12:00,71.2,54.7,30.10,ESE,111,2.0,4.0,56,0.00,,,0.00,Wunderground v.1.13,2013-08-04 17:12:00,
2013-08-04 12:15:00,71.2,54.2,30.11,South,169,2.0,2.0,55,0.00,,,0.00,Wunderground v.1.13,2013-08-04 17:15:00,
2013-08-04 12:18:00,71.5,54.0,30.11,SE,141,1.0,3.0,54,0.00,,,0.00,Wunderground v.1.13,2013-08-04 17:18:00,
2013-08-04 12:20:00,71.5,54.0,30.11,SE,140,1.0,5.0,54,0.00,,,0.00,Wunderground v.1.13,2013-08-04 17:20:00,
2013-08-04 12:21:00,71.5,54.5,30.11,SE,144,2.0,5.0,55,0.00,,,0.00,Wunderground v.1.13,2013-08-04 17:21:00,
2013-08-04 12:24:00,71.2,53.7,30.11,ESE,114,3.0,6.0,54,0.00,,,0.00,Wunderground v.1.13,2013-08-04 17:24:00,
2013-08-04 12:26:00,71.1,53.1,30.10,ESE,115,3.0,3.0,53,0.00,,,0.00,Wunderground v.1.13,2013-08-04 17:26:00,
2013-08-04 12:30:00,71.0,52.0,30.10,ESE,115,3.0,3.0,51,0.00,,,0.00,Wunderground v.1.13,2013-08-04 17:30:00,
2013-08-04 12:31:00,71.0,52.0,30.10,ESE,115,2.0,5.0,51,0.00,,,0.00,Wunderground v.1.13,2013-08-04 17:31:00,
2013-08-04 12:34:00,71.0,54.5,30.10,ESE,118,3.0,5.0,56,0.00,,,0.00,Wunderground v.1.13,2013-08-04 17:34:00,
2013-08-04 12:36:00,70.8,50.7,30.10,ESE,121,3.0,5.0,49,0.00,,,0.00,Wunderground v.1.13,2013-08-04 17:36:00,
2013-08-04 12:37:00,70.8,52.8,30.10,ESE,121,3.0,5.0,53,0.00,,,0.00,Wunderground v.1.13,2013-08-04 17:37:00,
2013-08-04 12:38:00,70.7,51.1,30.10,ESE,121,3.0,5.0,50,0.00,,,0.00,Wunderground v.1.13,2013-08-04 17:38:00,
2013-08-04 12:42:00,70.8,52.3,30.10,ESE,121,2.0,3.0,52,0.00,,,0.00,Wunderground v.1.13,2013-08-04 17:42:00,
2013-08-04 12:43:00,70.8,52.3,30.10,ESE,121,2.0,3.0,52,0.00,,,0.00,Wunderground v.1.13,2013-08-04 17:43:00,
2013-08-04 12:44:00,71.0,53.0,30.10,ESE,121,1.0,1.0,53,0.00,,,0.00,Wunderground v.1.13,2013-08-04 17:44:00,
2013-08-04 12:46:00,71.1,52.0,30.10,ESE,121,1.0,1.0,51,0.00,,,0.00,Wunderground v.1.13,2013-08-04 17:46:00,
2013-08-04 12:47:00,71.1,49.8,30.10,SW,224,1.0,2.0,47,0.00,,,0.00,Wunderground v.1.13,2013-08-04 17:47:00,
2013-08-04 12:51:00,71.1,51.0,30.10,SW,224,1.0,1.0,49,0.00,,,0.00,Wunderground v.1.13,2013-08-04 17:51:00,
2013-08-04 12:53:00,71.2,51.1,30.09,SW,223,1.0,1.0,49,0.00,,,0.00,Wunderground v.1.13,2013-08-04 17:53:00,
2013-08-04 12:54:00,71.3,51.1,30.09,SW,223,1.0,1.0,49,0.00,,,0.00,Wunderground v.1.13,2013-08-04 17:54:00,
2013-08-04 13:00:00,71.7,53.1,30.09,SW,223,0.0,0.0,52,0.00,,,0.00,Wunderground v.1.13,2013-08-04 18:00:00,
2013-08-04 13:01:00,71.7,52.6,30.10,SW,223,0.0,0.0,51,0.00,,,0.00,Wunderground v.1.13,2013-08-04 18:01:00,
2013-08-04 13:02:00,71.7,52.6,30.10,SW,223,0.0,0.0,51,0.00,,,0.00,Wunderground v.1.13,2013-08-04 18:02:00,
2013-08-04 13:03:00,71.7,52.1,30.10,SW,223,0.0,0.0,50,0.00,,,0.00,Wunderground v.1.13,2013-08-04 18:03:00,
2013-08-04 13:08:00,72.1,50.8,30.10,SW,225,0.0,0.0,47,0.00,,,0.00,Wunderground v.1.13,2013-08-04 18:08:00,
2013-08-04 13:09:00,72.2,50.8,30.10,SW,225,0.0,0.0,47,0.00,,,0.00,Wunderground v.1.13,2013-08-04 18:09:00,
2013-08-04 13:10:00,72.3,50.9,30.10,SW,225,0.0,0.0,47,0.00,,,0.00,Wunderground v.1.13,2013-08-04 18:10:00,
2013-08-04 13:14:00,72.5,49.9,30.09,South,177,1.0,4.0,45,0.00,,,0.00,Wunderground v.1.13,2013-08-04 18:14:00,
2013-08-04 13:16:00,72.1,50.8,30.09,South,177,1.0,2.0,47,0.00,,,0.00,Wunderground v.1.13,2013-08-04 18:16:00,
2013-08-04 13:18:00,72.0,51.2,30.09,South,177,1.0,2.0,48,0.00,,,0.00,Wunderground v.1.13,2013-08-04 18:18:00,
2013-08-04 13:19:00,72.1,52.4,30.09,South,177,1.0,2.0,50,0.00,,,0.00,Wunderground v.1.13,2013-08-04 18:19:00,
2013-08-04 13:23:00,72.6,51.8,30.09,South,177,1.0,1.0,48,0.00,,,0.00,Wunderground v.1.13,2013-08-04 18:23:00,
2013-08-04 13:24:00,72.9,52.1,30.09,South,177,1.0,1.0,48,0.00,,,0.00,Wunderground v.1.13,2013-08-04 18:24:00,
2013-08-04 13:26:00,73.1,50.5,30.09,South,177,0.0,1.0,45,0.00,,,0.00,Wunderground v.1.13,2013-08-04 18:26:00,
2013-08-04 13:29:00,73.6,51.5,30.09,ESE,108,1.0,6.0,46,0.00,,,0.00,Wunderground v.1.13,2013-08-04 18:29:00,
2013-08-04 13:30:00,73.5,52.0,30.09,SE,132,1.0,2.0,47,0.00,,,0.00,Wunderground v.1.13,2013-08-04 18:30:00,
2013-08-04 13:32:00,73.5,52.0,30.09,SE,142,1.0,3.0,47,0.00,,,0.00,Wunderground v.1.13,2013-08-04 18:32:00,
2013-08-04 13:37:00,73.0,51.0,30.09,SSE,157,2.0,2.0,46,0.00,,,0.00,Wunderground v.1.13,2013-08-04 18:37:00,
2013-08-04 13:39:00,73.0,50.4,30.09,ESE,117,2.0,6.0,45,0.00,,,0.00,Wunderground v.1.13,2013-08-04 18:39:00,
2013-08-04 13:40:00,73.0,51.6,30.09,ESE,115,2.0,5.0,47,0.00,,,0.00,Wunderground v.1.13,2013-08-04 18:40:00,
2013-08-04 13:43:00,72.8,50.8,30.09,ESE,114,3.0,6.0,46,0.00,,,0.00,Wunderground v.1.13,2013-08-04 18:43:00,
2013-08-04 13:46:00,72.9,52.1,30.08,ESE,114,4.0,4.0,48,0.00,,,0.00,Wunderground v.1.13,2013-08-04 18:46:00,
2013-08-04 13:47:00,73.1,53.4,30.08,ESE,114,4.0,4.0,50,0.00,,,0.00,Wunderground v.1.13,2013-08-04 18:47:00,
2013-08-04 13:48:00,73.2,51.2,30.09,ESE,114,3.0,4.0,46,0.00,,,0.00,Wunderground v.1.13,2013-08-04 18:48:00,
2013-08-04 13:52:00,73.3,51.3,30.08,ESE,114,2.0,3.0,46,0.00,,,0.00,Wunderground v.1.13,2013-08-04 18:52:00,
2013-08-04 13:53:00,73.4,51.9,30.08,ESE,114,2.0,3.0,47,0.00,,,0.00,Wunderground v.1.13,2013-08-04 18:53:00,
2013-08-04 13:56:00,73.7,52.8,30.08,ESE,114,1.0,5.0,48,0.00,,,0.00,Wunderground v.1.13,2013-08-04 18:56:00,
2013-08-04 13:57:00,73.8,52.9,30.08,ESE,115,1.0,5.0,48,0.00,,,0.00,Wunderground v.1.13,2013-08-04 18:57:00,
2013-08-04 14:01:00,73.4,49.5,30.08,ESE,115,2.0,2.0,43,0.00,,,0.00,Wunderground v.1.13,2013-08-04 19:01:00,
2013-08-04 14:02:00,73.3,49.4,30.08,ESE,115,1.0,2.0,43,0.00,,,0.00,Wunderground v.1.13,2013-08-04 19:02:00,
2013-08-04 14:03:00,73.3,50.1,30.08,ESE,115,1.0,2.0,44,0.00,,,0.00,Wunderground v.1.13,2013-08-04 19:03:00,
2013-08-04 14:04:00,73.3,50.1,30.08,ESE,115,1.0,2.0,44,0.00,,,0.00,Wunderground v.1.13,2013-08-04 19:04:00,
2013-08-04 14:08:00,73.2,51.2,30.08,ESE,115,1.0,7.0,46,0.00,,,0.00,Wunderground v.1.13,2013-08-04 19:08:00,
2013-08-04 14:10:00,72.9,50.3,30.08,ESE,115,1.0,2.0,45,0.00,,,0.00,Wunderground v.1.13,2013-08-04 19:10:00,
2013-08-04 14:11:00,72.8,50.8,30.08,ESE,115,1.0,2.0,46,0.00,,,0.00,Wunderground v.1.13,2013-08-04 19:11:00,
2013-08-04 14:12:00,72.6,50.6,30.08,ESE,115,2.0,5.0,46,0.00,,,0.00,Wunderground v.1.13,2013-08-04 19:12:00,
2013-08-04 14:14:00,72.5,50.5,30.08,ESE,114,2.0,5.0,46,0.00,,,0.00,Wunderground v.1.13,2013-08-04 19:14:00,
2013-08-04 14:15:00,72.5,49.3,30.07,ESE,115,2.0,2.0,44,0.00,,,0.00,Wunderground v.1.13,2013-08-04 19:15:00,
2013-08-04 14:20:00,72.8,50.2,30.07,NE,51,2.0,4.0,45,0.00,,,0.00,Wunderground v.1.13,2013-08-04 19:20:00,
2013-08-04 14:21:00,72.9,49.7,30.07,NE,51,2.0,4.0,44,0.00,,,0.00,Wunderground v.1.13,2013-08-04 19:21:00,
2013-08-04 14:22:00,73.0,49.8,30.07,NE,51,1.0,4.0,44,0.00,,,0.00,Wunderground v.1.13,2013-08-04 19:22:00,
2013-08-04 14:26:00,74.0,51.3,30.07,NE,51,1.0,1.0,45,0.00,,,0.00,Wunderground v.1.13,2013-08-04 19:26:00,
2013-08-04 14:27:00,74.2,51.5,30.07,NE,51,1.0,2.0,45,0.00,,,0.00,Wunderground v.1.13,2013-08-04 19:27:00,
2013-08-04 14:30:00,75.1,51.1,30.07,East,88,0.0,1.0,43,0.00,,,0.00,Wunderground v.1.13,2013-08-04 19:30:00,
2013-08-04 14:32:00,75.3,51.3,30.07,East,88,0.0,1.0,43,0.00,,,0.00,Wunderground v.1.13,2013-08-04 19:32:00,
2013-08-04 14:34:00,75.6,50.9,30.07,East,88,0.0,1.0,42,0.00,,,0.00,Wunderground v.1.13,2013-08-04 19:34:00,
2013-08-04 14:36:00,75.9,50.5,30.07,WNW,296,1.0,2.0,41,0.00,,,0.00,Wunderground v.1.13,2013-08-04 19:36:00,
2013-08-04 14:39:00,75.9,51.2,30.07,WNW,296,1.0,2.0,42,0.00,,,0.00,Wunderground v.1.13,2013-08-04 19:39:00,
2013-08-04 14:40:00,76.0,51.2,30.07,WNW,296,0.0,0.0,42,0.00,,,0.00,Wunderground v.1.13,2013-08-04 19:40:00,
2013-08-04 14:42:00,76.0,50.6,30.07,NW,309,1.0,4.0,41,0.00,,,0.00,Wunderground v.1.13,2013-08-04 19:42:00,
2013-08-04 14:45:00,74.9,50.3,30.07,ESE,117,1.0,3.0,42,0.00,,,0.00,Wunderground v.1.13,2013-08-04 19:45:00,
2013-08-04 14:46:00,74.7,50.7,30.07,ESE,103,2.0,4.0,43,0.00,,,0.00,Wunderground v.1.13,2013-08-04 19:46:00,
2013-08-04 14:47:00,74.5,51.2,30.07,ESE,117,2.0,5.0,44,0.00,,,0.00,Wunderground v.1.13,2013-08-04 19:47:00,
2013-08-04 14:48:00,74.3,50.4,30.07,ESE,117,3.0,5.0,43,0.00,,,0.00,Wunderground v.1.13,2013-08-04 19:48:00,
2013-08-04 14:50:00,74.0,50.7,30.07,ESE,105,3.0,3.0,44,0.00,,,0.00,Wunderground v.1.13,2013-08-04 19:50:00,
2013-08-04 14:51:00,74.0,50.7,30.07,ESE,109,3.0,4.0,44,0.00,,,0.00,Wunderground v.1.13,2013-08-04 19:51:00,
2013-08-04 14:56:00,73.9,50.0,30.06,ESE,109,2.0,3.0,43,0.00,,,0.00,Wunderground v.1.13,2013-08-04 19:56:00,
2013-08-04 14:58:00,74.0,50.7,30.06,ESE,109,1.0,3.0,44,0.00,,,0.00,Wunderground v.1.13,2013-08-04 19:58:00,
2013-08-04 14:59:00,74.1,50.8,30.06,ESE,109,1.0,3.0,44,0.00,,,0.00,Wunderground v.1.13,2013-08-04 19:59:00,
2013-08-04 15:01:00,74.3,49.7,30.06,ENE,66,0.0,2.0,42,0.00,,,0.00,Wunderground v.1.13,2013-08-04 20:01:00,
2013-08-04 15:04:00,74.6,50.0,30.06,NE,47,1.0,2.0,42,0.00,,,0.00,Wunderground v.1.13,2013-08-04 20:04:00,
2013-08-04 15:06:00,74.8,49.5,30.06,NE,44,2.0,5.0,41,0.00,,,0.00,Wunderground v.1.13,2013-08-04 20:06:00,
2013-08-04 15:07:00,74.9,50.3,30.06,NE,44,2.0,5.0,42,0.00,,,0.00,Wunderground v.1.13,2013-08-04 20:07:00,
2013-08-04 15:09:00,74.7,49.4,30.06,ESE,103,2.0,5.0,41,0.00,,,0.00,Wunderground v.1.13,2013-08-04 20:09:00,
2013-08-04 15:11:00,74.4,49.8,30.06,ESE,107,3.0,5.0,42,0.00,,,0.00,Wunderground v.1.13,2013-08-04 20:11:00,
2013-08-04 15:13:00,74.4,50.4,30.06,West,266,3.0,5.0,43,0.00,,,0.00,Wunderground v.1.13,2013-08-04 20:13:00,
2013-08-04 15:14:00,74.5,51.8,30.06,South,171,3.0,5.0,45,0.00,,,0.00,Wunderground v.1.13,2013-08-04 20:14:00,
2013-08-04 15:15:00,74.7,51.3,30.06,South,178,3.0,5.0,44,0.00,,,0.00,Wunderground v.1.13,2013-08-04 20:15:00,
2013-08-04 15:17:00,74.9,49.6,30.06,South,180,3.0,5.0,41,0.00,,,0.00,Wunderground v.1.13,2013-08-04 20:17:00,
2013-08-04 15:19:00,75.4,50.7,30.06,SSW,192,3.0,4.0,42,0.00,,,0.00,Wunderground v.1.13,2013-08-04 20:19:00,
2013-08-04 15:21:00,75.5,50.8,30.06,ESE,123,3.0,4.0,42,0.00,,,0.00,Wunderground v.1.13,2013-08-04 20:21:00,
2013-08-04 15:22:00,75.5,50.8,30.06,ESE,123,3.0,4.0,42,0.00,,,0.00,Wunderground v.1.13,2013-08-04 20:22:00,
2013-08-04 15:25:00,75.8,50.4,30.06,SE,138,2.0,2.0,41,0.00,,,0.00,Wunderground v.1.13,2013-08-04 20:25:00,
2013-08-04 15:27:00,75.9,49.8,30.06,SE,136,2.0,5.0,40,0.00,,,0.00,Wunderground v.1.13,2013-08-04 20:27:00,
2013-08-04 15:29:00,75.7,51.0,30.06,SE,134,2.0,6.0,42,0.00,,,0.00,Wunderground v.1.13,2013-08-04 20:29:00,
2013-08-04 15:31:00,75.4,50.1,30.06,SE,133,2.0,4.0,41,0.00,,,0.00,Wunderground v.1.13,2013-08-04 20:31:00,
2013-08-04 15:33:00,74.7,48.8,30.06,ESE,122,3.0,9.0,40,0.00,,,0.00,Wunderground v.1.13,2013-08-04 20:33:00,
2013-08-04 15:35:00,74.3,49.1,30.06,ESE,122,3.0,3.0,41,0.00,,,0.00,Wunderground v.1.13,2013-08-04 20:35:00,
2013-08-04 15:36:00,74.3,49.1,30.06,ESE,122,3.0,3.0,41,0.00,,,0.00,Wunderground v.1.13,2013-08-04 20:36:00,
2013-08-04 15:37:00,74.4,49.2,30.06,ESE,122,3.0,3.0,41,0.00,,,0.00,Wunderground v.1.13,2013-08-04 20:37:00,
2013-08-04 15:39:00,74.6,50.0,30.06,ESE,122,2.0,3.0,42,0.00,,,0.00,Wunderground v.1.13,2013-08-04 20:39:00,
2013-08-04 15:42:00,75.2,49.9,30.06,ESE,122,1.0,2.0,41,0.00,,,0.00,Wunderground v.1.13,2013-08-04 20:42:00,
2013-08-04 15:43:00,75.3,50.0,30.06,ESE,122,1.0,3.0,41,0.00,,,0.00,Wunderground v.1.13,2013-08-04 20:43:00,
2013-08-04 15:46:00,75.6,48.9,30.05,ESE,122,1.0,5.0,39,0.00,,,0.00,Wunderground v.1.13,2013-08-04 20:46:00,
2013-08-04 15:48:00,75.4,50.1,30.05,ESE,122,2.0,5.0,41,0.00,,,0.00,Wunderground v.1.13,2013-08-04 20:48:00,
2013-08-04 15:51:00,74.9,50.9,30.05,ESE,122,2.0,2.0,43,0.00,,,0.00,Wunderground v.1.13,2013-08-04 20:51:00,
2013-08-04 15:52:00,74.9,50.9,30.05,ESE,122,2.0,2.0,43,0.00,,,0.00,Wunderground v.1.13,2013-08-04 20:52:00,
2013-08-04 15:53:00,75.1,50.4,30.05,ESE,122,2.0,2.0,42,0.00,,,0.00,Wunderground v.1.13,2013-08-04 20:53:00,
2013-08-04 15:54:00,75.4,50.1,30.05,ESE,122,2.0,2.0,41,0.00,,,0.00,Wunderground v.1.13,2013-08-04 20:54:00,
2013-08-04 15:58:00,75.9,50.5,30.05,ESE,122,1.0,2.0,41,0.00,,,0.00,Wunderground v.1.13,2013-08-04 20:58:00,
2013-08-04 16:01:00,76.0,50.6,30.05,SW,221,1.0,4.0,41,0.00,,,0.00,Wunderground v.1.13,2013-08-04 21:01:00,
2013-08-04 16:02:00,76.0,51.9,30.05,SW,221,1.0,4.0,43,0.00,,,0.00,Wunderground v.1.13,2013-08-04 21:02:00,
2013-08-04 16:05:00,75.6,52.1,30.05,ESE,119,2.0,6.0,44,0.00,,,0.00,Wunderground v.1.13,2013-08-04 21:05:00,
2013-08-04 16:08:00,75.0,53.4,30.05,South,178,3.0,7.0,47,0.00,,,0.00,Wunderground v.1.13,2013-08-04 21:08:00,
2013-08-04 16:09:00,74.7,51.3,30.05,South,175,4.0,7.0,44,0.00,,,0.00,Wunderground v.1.13,2013-08-04 21:09:00,
2013-08-04 16:11:00,74.5,50.5,30.05,South,175,4.0,4.0,43,0.00,,,0.00,Wunderground v.1.13,2013-08-04 21:11:00,
2013-08-04 16:12:00,74.4,51.1,30.05,South,173,4.0,4.0,44,0.00,,,0.00,Wunderground v.1.13,2013-08-04 21:12:00,
2013-08-04 16:14:00,74.3,51.0,30.05,South,172,4.0,4.0,44,0.00,,,0.00,Wunderground v.1.13,2013-08-04 21:14:00,
2013-08-04 16:16:00,74.3,51.0,30.05,South,173,2.0,3.0,44,0.00,,,0.00,Wunderground v.1.13,2013-08-04 21:16:00,
2013-08-04 16:18:00,74.3,51.6,30.05,South,173,2.0,3.0,45,0.00,,,0.00,Wunderground v.1.13,2013-08-04 21:18:00,
2013-08-04 16:20:00,74.4,52.3,30.05,SSE,149,1.0,4.0,46,0.00,,,0.00,Wunderground v.1.13,2013-08-04 21:20:00,
2013-08-04 16:22:00,73.9,51.8,30.05,ESE,109,2.0,7.0,46,0.00,,,0.00,Wunderground v.1.13,2013-08-04 21:22:00,
2013-08-04 16:27:00,73.6,51.5,30.04,West,265,2.0,2.0,46,0.00,,,0.00,Wunderground v.1.13,2013-08-04 21:27:00,
2013-08-04 16:28:00,73.6,52.7,30.04,SE,132,3.0,5.0,48,0.00,,,0.00,Wunderground v.1.13,2013-08-04 21:28:00,
2013-08-04 16:29:00,73.5,51.4,30.04,ESE,119,3.0,6.0,46,0.00,,,0.00,Wunderground v.1.13,2013-08-04 21:29:00,
2013-08-04 16:30:00,73.4,51.9,30.04,WNW,286,3.0,4.0,47,0.00,,,0.00,Wunderground v.1.13,2013-08-04 21:30:00,
2013-08-04 16:34:00,73.4,51.4,30.04,SSE,157,2.0,4.0,46,0.00,,,0.00,Wunderground v.1.13,2013-08-04 21:34:00,
2013-08-04 16:35:00,73.4,50.8,30.04,South,175,2.0,2.0,45,0.00,,,0.00,Wunderground v.1.13,2013-08-04 21:35:00,
2013-08-04 16:37:00,73.4,50.8,30.04,SSW,199,2.0,4.0,45,0.00,,,0.00,Wunderground v.1.13,2013-08-04 21:37:00,
2013-08-04 16:42:00,73.4,50.8,30.04,SSE,160,1.0,1.0,45,0.00,,,0.00,Wunderground v.1.13,2013-08-04 21:42:00,
2013-08-04 16:44:00,73.5,51.4,30.04,SE,126,1.0,1.0,46,0.00,,,0.00,Wunderground v.1.13,2013-08-04 21:44:00,
2013-08-04 16:45:00,73.5,50.9,30.04,SE,126,1.0,1.0,45,0.00,,,0.00,Wunderground v.1.13,2013-08-04 21:45:00,
2013-08-04 16:46:00,73.6,51.5,30.04,SE,126,1.0,1.0,46,0.00,,,0.00,Wunderground v.1.13,2013-08-04 21:46:00,
2013-08-04 16:49:00,73.7,51.0,30.04,ESE,123,1.0,6.0,45,0.00,,,0.00,Wunderground v.1.13,2013-08-04 21:49:00,
2013-08-04 16:51:00,73.7,51.0,30.04,SE,126,2.0,6.0,45,0.00,,,0.00,Wunderground v.1.13,2013-08-04 21:51:00,
2013-08-04 16:53:00,73.6,50.3,30.04,ESE,115,2.0,6.0,44,0.00,,,0.00,Wunderground v.1.13,2013-08-04 21:53:00,
2013-08-04 16:57:00,73.3,53.0,30.03,ESE,121,3.0,4.0,49,0.00,,,0.00,Wunderground v.1.13,2013-08-04 21:57:00,
2013-08-04 16:58:00,73.3,53.0,30.03,ESE,121,3.0,4.0,49,0.00,,,0.00,Wunderground v.1.13,2013-08-04 21:58:00,
2013-08-04 17:00:00,73.3,53.0,30.03,ESE,121,2.0,2.0,49,0.00,,,0.00,Wunderground v.1.13,2013-08-04 22:00:00,
2013-08-04 17:04:00,73.5,51.4,30.03,South,183,2.0,2.0,46,0.00,,,0.00,Wunderground v.1.13,2013-08-04 22:04:00,
2013-08-04 17:05:00,73.6,51.5,30.04,South,183,1.0,1.0,46,0.00,,,0.00,Wunderground v.1.13,2013-08-04 22:05:00,
2013-08-04 17:07:00,73.9,52.4,30.03,South,183,1.0,1.0,47,0.00,,,0.00,Wunderground v.1.13,2013-08-04 22:07:00,
2013-08-04 17:08:00,74.0,51.9,30.03,South,183,1.0,1.0,46,0.00,,,0.00,Wunderground v.1.13,2013-08-04 22:08:00,
2013-08-04 17:09:00,74.1,52.0,30.03,South,183,0.0,1.0,46,0.00,,,0.00,Wunderground v.1.13,2013-08-04 22:09:00,
2013-08-04 17:11:00,74.4,51.7,30.03,South,183,0.0,0.0,45,0.00,,,0.00,Wunderground v.1.13,2013-08-04 22:11:00,
2013-08-04 17:13:00,74.6,52.4,30.03,South,183,0.0,0.0,46,0.00,,,0.00,Wunderground v.1.13,2013-08-04 22:13:00,
2013-08-04 17:14:00,74.7,52.5,30.03,South,183,0.0,0.0,46,0.00,,,0.00,Wunderground v.1.13,2013-08-04 22:14:00,
2013-08-04 17:16:00,74.7,52.5,30.03,South,184,0.0,2.0,46,0.00,,,0.00,Wunderground v.1.13,2013-08-04 22:16:00,
2013-08-04 17:18:00,74.8,53.2,30.03,South,184,0.0,2.0,47,0.00,,,0.00,Wunderground v.1.13,2013-08-04 22:18:00,
2013-08-04 17:20:00,74.9,53.3,30.03,South,173,0.0,2.0,47,0.00,,,0.00,Wunderground v.1.13,2013-08-04 22:20:00,
2013-08-04 17:22:00,74.9,53.3,30.03,South,173,0.0,2.0,47,0.00,,,0.00,Wunderground v.1.13,2013-08-04 22:22:00,
2013-08-04 17:24:00,75.0,54.0,30.03,South,173,0.0,2.0,48,0.00,,,0.00,Wunderground v.1.13,2013-08-04 22:24:00,
2013-08-04 17:25:00,75.0,54.0,30.03,South,173,0.0,0.0,48,0.00,,,0.00,Wunderground v.1.13,2013-08-04 22:25:00,
2013-08-04 17:26:00,75.0,54.0,30.03,South,173,0.0,0.0,48,0.00,,,0.00,Wunderground v.1.13,2013-08-04 22:26:00,
2013-08-04 17:31:00,75.0,52.8,30.03,South,186,1.0,2.0,46,0.00,,,0.00,Wunderground v.1.13,2013-08-04 22:31:00,
2013-08-04 17:32:00,74.9,52.1,30.03,SSE,156,1.0,4.0,45,0.00,,,0.00,Wunderground v.1.13,2013-08-04 22:32:00,
2013-08-04 17:33:00,74.7,51.9,30.03,SSE,156,1.0,4.0,45,0.00,,,0.00,Wunderground v.1.13,2013-08-04 22:33:00,
2013-08-04 17:34:00,74.7,51.9,30.02,SSE,156,1.0,4.0,45,0.00,,,0.00,Wunderground v.1.13,2013-08-04 22:34:00,
2013-08-04 17:37:00,74.8,52.6,30.02,SSE,156,1.0,1.0,46,0.00,,,0.00,Wunderground v.1.13,2013-08-04 22:37:00,
2013-08-04 17:38:00,74.6,52.4,30.02,SSE,155,1.0,2.0,46,0.00,,,0.00,Wunderground v.1.13,2013-08-04 22:38:00,
2013-08-04 17:39:00,74.3,52.2,30.02,SSW,194,1.0,1.0,46,0.00,,,0.00,Wunderground v.1.13,2013-08-04 22:39:00,
2013-08-04 17:43:00,73.9,53.0,30.02,SW,218,1.0,4.0,48,0.00,,,0.00,Wunderground v.1.13,2013-08-04 22:43:00,
2013-08-04 17:45:00,73.7,53.3,30.02,WSW,246,1.0,1.0,49,0.00,,,0.00,Wunderground v.1.13,2013-08-04 22:45:00,
2013-08-04 17:47:00,73.5,53.2,30.02,SE,132,2.0,2.0,49,0.00,,,0.00,Wunderground v.1.13,2013-08-04 22:47:00,
2013-08-04 17:48:00,73.3,53.0,30.02,SE,132,2.0,2.0,49,0.00,,,0.00,Wunderground v.1.13,2013-08-04 22:48:00,
2013-08-04 17:52:00,72.8,53.1,30.02,WSW,248,2.0,6.0,50,0.00,,,0.00,Wunderground v.1.13,2013-08-04 22:52:00,
2013-08-04 17:56:00,72.7,52.4,30.02,South,187,2.0,4.0,49,0.00,,,0.00,Wunderground v.1.13,2013-08-04 22:56:00,
2013-08-04 17:57:00,72.6,52.3,30.02,SSW,207,2.0,4.0,49,0.00,,,0.00,Wunderground v.1.13,2013-08-04 22:57:00,
2013-08-04 17:59:00,72.5,52.2,30.02,SW,226,2.0,6.0,49,0.00,,,0.00,Wunderground v.1.13,2013-08-04 22:59:00,
2013-08-04 18:02:00,72.5,52.8,30.02,WSW,255,2.0,2.0,50,0.00,,,0.00,Wunderground v.1.13,2013-08-04 23:02:00,
2013-08-04 18:05:00,72.4,52.7,30.02,WSW,254,1.0,1.0,50,0.00,,,0.00,Wunderground v.1.13,2013-08-04 23:05:00,
2013-08-04 18:06:00,72.4,52.7,30.01,WSW,255,1.0,1.0,50,0.00,,,0.00,Wunderground v.1.13,2013-08-04 23:06:00,
2013-08-04 18:08:00,72.4,53.2,30.02,WSW,244,1.0,2.0,51,0.00,,,0.00,Wunderground v.1.13,2013-08-04 23:08:00,
2013-08-04 18:09:00,72.4,52.7,30.02,WSW,241,0.0,2.0,50,0.00,,,0.00,Wunderground v.1.13,2013-08-04 23:09:00,
2013-08-04 18:15:00,72.4,52.7,30.01,SW,218,0.0,0.0,50,0.00,,,0.00,Wunderground v.1.13,2013-08-04 23:15:00,
2013-08-04 18:16:00,72.5,52.8,30.01,SW,218,0.0,0.0,50,0.00,,,0.00,Wunderground v.1.13,2013-08-04 23:16:00,
2013-08-04 18:18:00,72.6,52.3,30.01,South,175,1.0,3.0,49,0.00,,,0.00,Wunderground v.1.13,2013-08-04 23:18:00,
2013-08-04 18:19:00,72.6,52.3,30.01,South,175,1.0,3.0,49,0.00,,,0.00,Wunderground v.1.13,2013-08-04 23:19:00,
2013-08-04 18:22:00,72.5,52.2,30.01,South,180,1.0,1.0,49,0.00,,,0.00,Wunderground v.1.13,2013-08-04 23:22:00,
2013-08-04 18:26:00,72.7,51.9,30.01,South,173,1.0,1.0,48,0.00,,,0.00,Wunderground v.1.13,2013-08-04 23:26:00,
2013-08-04 18:29:00,72.9,52.6,30.01,South,173,1.0,3.0,49,0.00,,,0.00,Wunderground v.1.13,2013-08-04 23:29:00,
2013-08-04 18:31:00,73.1,51.7,30.01,SSE,156,1.0,5.0,47,0.00,,,0.00,Wunderground v.1.13,2013-08-04 23:31:00,
2013-08-04 18:33:00,73.2,51.8,30.01,ESE,120,1.0,8.0,47,0.00,,,0.00,Wunderground v.1.13,2013-08-04 23:33:00,
2013-08-04 18:34:00,73.2,51.8,30.00,SE,126,1.0,8.0,47,0.00,,,0.00,Wunderground v.1.13,2013-08-04 23:34:00,
2013-08-04 18:36:00,73.2,51.8,30.00,South,169,1.0,1.0,47,0.00,,,0.00,Wunderground v.1.13,2013-08-04 23:36:00,
2013-08-04 18:38:00,73.2,51.8,30.00,SSE,167,2.0,5.0,47,0.00,,,0.00,Wunderground v.1.13,2013-08-04 23:38:00,
2013-08-04 18:40:00,73.0,51.6,30.00,ESE,118,2.0,2.0,47,0.00,,,0.00,Wunderground v.1.13,2013-08-04 23:40:00,
2013-08-04 18:44:00,72.8,52.0,30.00,WSW,241,1.0,2.0,48,0.00,,,0.00,Wunderground v.1.13,2013-08-04 23:44:00,
2013-08-04 18:45:00,72.8,52.0,30.00,South,179,2.0,2.0,48,0.00,,,0.00,Wunderground v.1.13,2013-08-04 23:45:00,
2013-08-04 18:49:00,73.1,52.2,30.00,SW,215,1.0,2.0,48,0.00,,,0.00,Wunderground v.1.13,2013-08-04 23:49:00,
2013-08-04 18:50:00,73.3,52.4,30.00,SW,215,1.0,2.0,48,0.00,,,0.00,Wunderground v.1.13,2013-08-04 23:50:00,
2013-08-04 18:51:00,73.4,51.4,30.00,South,183,1.0,2.0,46,0.00,,,0.00,Wunderground v.1.13,2013-08-04 23:51:00,
2013-08-04 18:52:00,73.4,51.9,30.00,SSW,198,1.0,5.0,47,0.00,,,0.00,Wunderground v.1.13,2013-08-04 23:52:00,
2013-08-04 18:55:00,73.4,51.4,30.00,SE,132,1.0,1.0,46,0.00,,,0.00,Wunderground v.1.13,2013-08-04 23:55:00,
2013-08-04 18:56:00,73.4,51.4,30.00,WSW,238,1.0,1.0,46,0.00,,,0.00,Wunderground v.1.13,2013-08-04 23:56:00,
2013-08-04 18:57:00,73.4,51.9,30.00,WSW,237,1.0,1.0,47,0.00,,,0.00,Wunderground v.1.13,2013-08-04 23:57:00,
2013-08-04 18:58:00,73.4,50.8,29.99,SE,136,1.0,2.0,45,0.00,,,0.00,Wunderground v.1.13,2013-08-04 23:58:00,
2013-08-04 19:01:00,73.5,50.9,29.99,SSE,167,1.0,2.0,45,0.00,,,0.00,Wunderground v.1.13,2013-08-05 00:01:00,
2013-08-04 19:03:00,73.5,51.4,29.99,SSE,160,1.0,2.0,46,0.00,,,0.00,Wunderground v.1.13,2013-08-05 00:03:00,
2013-08-04 19:04:00,73.5,51.4,29.99,SSE,160,1.0,2.0,46,0.00,,,0.00,Wunderground v.1.13,2013-08-05 00:04:00,
2013-08-04 19:05:00,73.4,51.4,29.99,SSE,160,1.0,1.0,46,0.00,,,0.00,Wunderground v.1.13,2013-08-05 00:05:00,
2013-08-04 19:06:00,73.5,51.4,29.99,West,261,1.0,1.0,46,0.00,,,0.00,Wunderground v.1.13,2013-08-05 00:06:00,
2013-08-04 19:09:00,73.6,51.5,29.99,West,261,1.0,1.0,46,0.00,,,0.00,Wunderground v.1.13,2013-08-05 00:09:00,
2013-08-04 19:12:00,73.6,52.1,29.99,SSW,209,1.0,5.0,47,0.00,,,0.00,Wunderground v.1.13,2013-08-05 00:12:00,
2013-08-04 19:15:00,73.6,51.5,29.99,SSW,209,1.0,2.0,46,0.00,,,0.00,Wunderground v.1.13,2013-08-05 00:15:00,
2013-08-04 19:17:00,73.5,51.4,29.99,SSE,161,1.0,2.0,46,0.00,,,0.00,Wunderground v.1.13,2013-08-05 00:17:00,
2013-08-04 19:18:00,73.4,51.4,29.99,SSE,162,1.0,2.0,46,0.00,,,0.00,Wunderground v.1.13,2013-08-05 00:18:00,
2013-08-04 19:21:00,73.3,51.3,29.98,South,180,1.0,1.0,46,0.00,,,0.00,Wunderground v.1.13,2013-08-05 00:21:00,
2013-08-04 19:24:00,73.1,51.1,29.98,SSW,213,1.0,1.0,46,0.00,,,0.00,Wunderground v.1.13,2013-08-05 00:24:00,
2013-08-04 19:25:00,73.0,51.6,29.98,SSW,213,1.0,1.0,47,0.00,,,0.00,Wunderground v.1.13,2013-08-05 00:25:00,
2013-08-04 19:27:00,72.9,51.5,29.98,SW,219,1.0,2.0,47,0.00,,,0.00,Wunderground v.1.13,2013-08-05 00:27:00,
2013-08-04 19:30:00,72.8,52.0,29.98,SW,217,0.0,0.0,48,0.00,,,0.00,Wunderground v.1.13,2013-08-05 00:30:00,
2013-08-04 19:31:00,72.8,52.0,29.98,SW,217,0.0,0.0,48,0.00,,,0.00,Wunderground v.1.13,2013-08-05 00:31:00,
2013-08-04 19:33:00,72.8,52.0,29.98,SW,217,0.0,1.0,48,0.00,,,0.00,Wunderground v.1.13,2013-08-05 00:33:00,
2013-08-04 19:37:00,72.6,51.8,29.98,SSW,204,0.0,0.0,48,0.00,,,0.00,Wunderground v.1.13,2013-08-05 00:37:00,
2013-08-04 19:38:00,72.6,51.8,29.98,SSW,203,0.0,2.0,48,0.00,,,0.00,Wunderground v.1.13,2013-08-05 00:38:00,
2013-08-04 19:40:00,72.5,52.2,29.98,SSW,204,0.0,0.0,49,0.00,,,0.00,Wunderground v.1.13,2013-08-05 00:40:00,
2013-08-04 19:43:00,72.4,52.2,29.98,SSW,204,0.0,0.0,49,0.00,,,0.00,Wunderground v.1.13,2013-08-05 00:43:00,
2013-08-04 19:45:00,72.4,52.2,29.98,SSW,204,0.0,0.0,49,0.00,,,0.00,Wunderground v.1.13,2013-08-05 00:45:00,
2013-08-04 19:49:00,72.2,53.1,29.98,SSW,204,0.0,0.0,51,0.00,,,0.00,Wunderground v.1.13,2013-08-05 00:49:00,
2013-08-04 19:50:00,72.1,53.0,29.98,SSW,204,0.0,0.0,51,0.00,,,0.00,Wunderground v.1.13,2013-08-05 00:50:00,
2013-08-04 19:51:00,72.1,53.0,29.98,SSW,205,0.0,0.0,51,0.00,,,0.00,Wunderground v.1.13,2013-08-05 00:51:00,
2013-08-04 19:53:00,72.1,53.0,29.98,SSW,204,0.0,0.0,51,0.00,,,0.00,Wunderground v.1.13,2013-08-05 00:53:00,
2013-08-04 19:55:00,71.9,52.8,29.98,SSW,203,0.0,0.0,51,0.00,,,0.00,Wunderground v.1.13,2013-08-05 00:55:00,
2013-08-04 19:56:00,71.9,52.8,29.98,SSW,204,0.0,0.0,51,0.00,,,0.00,Wunderground v.1.13,2013-08-05 00:56:00,
2013-08-04 19:57:00,71.8,53.2,29.98,SSW,203,0.0,0.0,52,0.00,,,0.00,Wunderground v.1.13,2013-08-05 00:57:00,
2013-08-04 19:59:00,71.8,53.2,29.98,SSW,203,0.0,0.0,52,0.00,,,0.00,Wunderground v.1.13,2013-08-05 00:59:00,
2013-08-04 20:00:00,71.7,53.1,29.98,SSW,204,0.0,0.0,52,0.00,,,0.00,Wunderground v.1.13,2013-08-05 01:00:00,
2013-08-04 20:03:00,71.4,52.9,29.97,SSW,205,0.0,2.0,52,0.00,,,0.00,Wunderground v.1.13,2013-08-05 01:03:00,
2013-08-04 20:06:00,71.1,53.1,29.97,SSW,203,0.0,0.0,53,0.00,,,0.00,Wunderground v.1.13,2013-08-05 01:06:00,
2013-08-04 20:08:00,70.9,53.4,29.97,SSW,203,0.0,0.0,54,0.00,,,0.00,Wunderground v.1.13,2013-08-05 01:08:00,
2013-08-04 20:11:00,70.7,53.2,29.97,South,190,0.0,0.0,54,0.00,,,0.00,Wunderground v.1.13,2013-08-05 01:11:00,
2013-08-04 20:15:00,70.4,53.5,29.96,South,190,0.0,2.0,55,0.00,,,0.00,Wunderground v.1.13,2013-08-05 01:15:00,
2013-08-04 20:16:00,70.3,53.4,29.97,South,190,1.0,4.0,55,0.00,,,0.00,Wunderground v.1.13,2013-08-05 01:16:00,
2013-08-04 20:17:00,70.0,53.6,29.97,South,190,1.0,4.0,56,0.00,,,0.00,Wunderground v.1.13,2013-08-05 01:17:00,
2013-08-04 20:20:00,69.8,53.4,29.97,South,190,0.0,0.0,56,0.00,,,0.00,Wunderground v.1.13,2013-08-05 01:20:00,
2013-08-04 20:24:00,69.3,53.9,29.97,South,190,1.0,3.0,58,0.00,,,0.00,Wunderground v.1.13,2013-08-05 01:24:00,
2013-08-04 20:25:00,69.2,53.8,29.97,South,190,1.0,1.0,58,0.00,,,0.00,Wunderground v.1.13,2013-08-05 01:25:00,
2013-08-04 20:27:00,68.8,53.9,29.97,South,190,1.0,5.0,59,0.00,,,0.00,Wunderground v.1.13,2013-08-05 01:27:00,
2013-08-04 20:30:00,68.6,53.7,29.97,South,190,1.0,1.0,59,0.00,,,0.00,Wunderground v.1.13,2013-08-05 01:30:00,
2013-08-04 20:32:00,68.5,54.1,29.97,South,190,1.0,1.0,60,0.00,,,0.00,Wunderground v.1.13,2013-08-05 01:32:00,
2013-08-04 20:34:00,68.3,53.9,29.97,South,190,1.0,1.0,60,0.00,,,0.00,Wunderground v.1.13,2013-08-05 01:34:00,
2013-08-04 20:35:00,68.3,53.9,29.97,South,190,1.0,1.0,60,0.00,,,0.00,Wunderground v.1.13,2013-08-05 01:35:00,
2013-08-04 20:37:00,68.1,53.7,29.97,South,190,0.0,1.0,60,0.00,,,0.00,Wunderground v.1.13,2013-08-05 01:37:00,
2013-08-04 20:40:00,67.7,53.8,29.97,South,190,0.0,0.0,61,0.00,,,0.00,Wunderground v.1.13,2013-08-05 01:40:00,
2013-08-04 20:42:00,67.6,53.7,29.97,South,190,0.0,0.0,61,0.00,,,0.00,Wunderground v.1.13,2013-08-05 01:42:00,
2013-08-04 20:43:00,67.5,54.0,29.97,South,190,0.0,0.0,62,0.00,,,0.00,Wunderground v.1.13,2013-08-05 01:43:00,
2013-08-04 20:48:00,67.1,54.1,29.97,South,190,0.0,0.0,63,0.00,,,0.00,Wunderground v.1.13,2013-08-05 01:48:00,
2013-08-04 20:50:00,67.0,54.0,29.97,South,190,0.0,0.0,63,0.00,,,0.00,Wunderground v.1.13,2013-08-05 01:50:00,
2013-08-04 20:51:00,66.9,53.9,29.97,South,190,0.0,0.0,63,0.00,,,0.00,Wunderground v.1.13,2013-08-05 01:51:00,
2013-08-04 20:55:00,66.6,54.0,29.97,South,190,0.0,0.0,64,0.00,,,0.00,Wunderground v.1.13,2013-08-05 01:55:00,
2013-08-04 20:57:00,66.5,53.9,29.97,South,190,0.0,0.0,64,0.00,,,0.00,Wunderground v.1.13,2013-08-05 01:57:00,
2013-08-04 20:58:00,66.4,53.8,29.97,South,190,0.0,0.0,64,0.00,,,0.00,Wunderground v.1.13,2013-08-05 01:58:00,
2013-08-04 21:00:00,66.4,53.8,29.97,South,190,0.0,0.0,64,0.00,,,0.00,Wunderground v.1.13,2013-08-05 02:00:00,
2013-08-04 21:01:00,66.3,54.2,29.97,South,190,0.0,0.0,65,0.00,,,0.00,Wunderground v.1.13,2013-08-05 02:01:00,
2013-08-04 21:05:00,66.2,54.5,29.96,South,190,0.0,0.0,66,0.00,,,0.00,Wunderground v.1.13,2013-08-05 02:05:00,
2013-08-04 21:06:00,66.1,54.8,29.97,South,190,0.0,0.0,67,0.00,,,0.00,Wunderground v.1.13,2013-08-05 02:06:00,
2013-08-04 21:07:00,66.1,54.8,29.96,South,190,0.0,0.0,67,0.00,,,0.00,Wunderground v.1.13,2013-08-05 02:07:00,
2013-08-04 21:09:00,66.0,54.7,29.96,South,190,0.0,0.0,67,0.00,,,0.00,Wunderground v.1.13,2013-08-05 02:09:00,
2013-08-04 21:12:00,65.9,54.6,29.97,South,190,0.0,1.0,67,0.00,,,0.00,Wunderground v.1.13,2013-08-05 02:12:00,
2013-08-04 21:13:00,65.9,54.6,29.97,South,190,0.0,1.0,67,0.00,,,0.00,Wunderground v.1.13,2013-08-05 02:13:00,
2013-08-04 21:14:00,65.8,54.5,29.97,South,190,0.0,0.0,67,0.00,,,0.00,Wunderground v.1.13,2013-08-05 02:14:00,
2013-08-04 21:18:00,65.6,54.3,29.97,South,190,0.0,0.0,67,0.00,,,0.00,Wunderground v.1.13,2013-08-05 02:18:00,
2013-08-04 21:19:00,65.5,54.2,29.97,South,190,0.0,0.0,67,0.00,,,0.00,Wunderground v.1.13,2013-08-05 02:19:00,
2013-08-04 21:20:00,65.4,54.2,29.97,South,190,0.0,1.0,67,0.00,,,0.00,Wunderground v.1.13,2013-08-05 02:20:00,
2013-08-04 21:22:00,65.2,54.0,29.97,South,190,0.0,1.0,67,0.00,,,0.00,Wunderground v.1.13,2013-08-05 02:22:00,
2013-08-04 21:25:00,65.2,54.0,29.97,South,190,0.0,0.0,67,0.00,,,0.00,Wunderground v.1.13,2013-08-05 02:25:00,
2013-08-04 21:26:00,65.1,53.9,29.97,South,190,0.0,2.0,67,0.00,,,0.00,Wunderground v.1.13,2013-08-05 02:26:00,
2013-08-04 21:28:00,65.0,53.8,29.97,South,190,0.0,2.0,67,0.00,,,0.00,Wunderground v.1.13,2013-08-05 02:28:00,
2013-08-04 21:30:00,64.9,53.7,29.96,South,190,0.0,0.0,67,0.00,,,0.00,Wunderground v.1.13,2013-08-05 02:30:00,
2013-08-04 21:32:00,64.9,53.7,29.96,South,190,0.0,0.0,67,0.00,,,0.00,Wunderground v.1.13,2013-08-05 02:32:00,
2013-08-04 21:35:00,64.8,53.6,29.96,South,190,0.0,0.0,67,0.00,,,0.00,Wunderground v.1.13,2013-08-05 02:35:00,
2013-08-04 21:38:00,64.7,53.5,29.96,South,190,0.0,0.0,67,0.00,,,0.00,Wunderground v.1.13,2013-08-05 02:38:00,
2013-08-04 21:40:00,64.7,53.5,29.96,South,190,0.0,0.0,67,0.00,,,0.00,Wunderground v.1.13,2013-08-05 02:40:00,
2013-08-04 21:43:00,64.5,53.3,29.96,South,190,0.0,0.0,67,0.00,,,0.00,Wunderground v.1.13,2013-08-05 02:43:00,
2013-08-04 21:44:00,64.5,53.7,29.96,South,190,0.0,0.0,68,0.00,,,0.00,Wunderground v.1.13,2013-08-05 02:44:00,
2013-08-04 21:45:00,64.5,53.7,29.96,South,190,0.0,0.0,68,0.00,,,0.00,Wunderground v.1.13,2013-08-05 02:45:00,
2013-08-04 21:50:00,64.3,53.5,29.97,South,190,0.0,0.0,68,0.00,,,0.00,Wunderground v.1.13,2013-08-05 02:50:00,
2013-08-04 21:51:00,64.3,53.5,29.97,South,190,0.0,0.0,68,0.00,,,0.00,Wunderground v.1.13,2013-08-05 02:51:00,
2013-08-04 21:52:00,64.2,53.4,29.97,South,190,0.0,0.0,68,0.00,,,0.00,Wunderground v.1.13,2013-08-05 02:52:00,
2013-08-04 21:54:00,64.1,53.3,29.97,South,190,0.0,0.0,68,0.00,,,0.00,Wunderground v.1.13,2013-08-05 02:54:00,
2013-08-04 21:55:00,64.1,53.3,29.97,South,190,0.0,0.0,68,0.00,,,0.00,Wunderground v.1.13,2013-08-05 02:55:00,
2013-08-04 21:56:00,64.0,53.6,29.97,South,190,0.0,0.0,69,0.00,,,0.00,Wunderground v.1.13,2013-08-05 02:56:00,
2013-08-04 22:00:00,63.8,53.4,29.97,South,190,0.0,0.0,69,0.00,,,0.00,Wunderground v.1.13,2013-08-05 03:00:00,
2013-08-04 22:01:00,63.8,53.4,29.97,South,190,0.0,0.0,69,0.00,,,0.00,Wunderground v.1.13,2013-08-05 03:01:00,
2013-08-04 22:05:00,63.6,53.2,29.96,South,190,0.0,0.0,69,0.00,,,0.00,Wunderground v.1.13,2013-08-05 03:05:00,
2013-08-04 22:08:00,63.6,53.2,29.96,South,190,0.0,2.0,69,0.00,,,0.00,Wunderground v.1.13,2013-08-05 03:08:00,
2013-08-04 22:10:00,63.6,53.2,29.96,South,190,0.0,1.0,69,0.00,,,0.00,Wunderground v.1.13,2013-08-05 03:10:00,
2013-08-04 22:13:00,63.6,53.2,29.96,South,190,0.0,1.0,69,0.00,,,0.00,Wunderground v.1.13,2013-08-05 03:13:00,
2013-08-04 22:14:00,63.6,53.2,29.96,South,190,0.0,1.0,69,0.00,,,0.00,Wunderground v.1.13,2013-08-05 03:14:00,
2013-08-04 22:17:00,63.5,52.7,29.96,South,190,0.0,0.0,68,0.00,,,0.00,Wunderground v.1.13,2013-08-05 03:17:00,
2013-08-04 22:19:00,63.5,53.1,29.96,South,190,0.0,1.0,69,0.00,,,0.00,Wunderground v.1.13,2013-08-05 03:19:00,
2013-08-04 22:22:00,63.4,52.7,29.96,South,190,0.0,0.0,68,0.00,,,0.00,Wunderground v.1.13,2013-08-05 03:22:00,
2013-08-04 22:24:00,63.4,53.0,29.96,South,190,0.0,0.0,69,0.00,,,0.00,Wunderground v.1.13,2013-08-05 03:24:00,
2013-08-04 22:27:00,63.3,53.0,29.96,South,190,0.0,0.0,69,0.00,,,0.00,Wunderground v.1.13,2013-08-05 03:27:00,
2013-08-04 22:29:00,63.2,52.9,29.96,South,190,0.0,2.0,69,0.00,,,0.00,Wunderground v.1.13,2013-08-05 03:29:00,
2013-08-04 22:30:00,63.2,52.9,29.96,South,190,0.0,0.0,69,0.00,,,0.00,Wunderground v.1.13,2013-08-05 03:30:00,
2013-08-04 22:32:00,63.1,52.8,29.96,South,190,0.0,0.0,69,0.00,,,0.00,Wunderground v.1.13,2013-08-05 03:32:00,
2013-08-04 22:34:00,63.1,53.2,29.96,South,190,0.0,0.0,70,0.00,,,0.00,Wunderground v.1.13,2013-08-05 03:34:00,
2013-08-04 22:36:00,63.0,53.1,29.96,South,190,0.0,0.0,70,0.00,,,0.00,Wunderground v.1.13,2013-08-05 03:36:00,
2013-08-04 22:40:00,62.9,53.4,29.96,South,190,0.0,0.0,71,0.00,,,0.00,Wunderground v.1.13,2013-08-05 03:40:00,
2013-08-04 22:42:00,62.8,53.3,29.95,South,190,0.0,0.0,71,0.00,,,0.00,Wunderground v.1.13,2013-08-05 03:42:00,
2013-08-04 22:43:00,62.8,53.3,29.96,South,190,0.0,0.0,71,0.00,,,0.00,Wunderground v.1.13,2013-08-05 03:43:00,
2013-08-04 22:46:00,62.7,53.2,29.96,South,190,0.0,0.0,71,0.00,,,0.00,Wunderground v.1.13,2013-08-05 03:46:00,
2013-08-04 22:47:00,62.7,53.2,29.96,South,190,0.0,0.0,71,0.00,,,0.00,Wunderground v.1.13,2013-08-05 03:47:00,
2013-08-04 22:48:00,62.7,53.5,29.96,South,190,0.0,0.0,72,0.00,,,0.00,Wunderground v.1.13,2013-08-05 03:48:00,
2013-08-04 22:49:00,62.7,53.5,29.96,South,190,0.0,0.0,72,0.00,,,0.00,Wunderground v.1.13,2013-08-05 03:49:00,
2013-08-04 22:51:00,62.6,53.8,29.95,South,190,0.0,0.0,73,0.00,,,0.00,Wunderground v.1.13,2013-08-05 03:51:00,
2013-08-04 22:56:00,62.5,53.7,29.95,South,190,0.0,0.0,73,0.00,,,0.00,Wunderground v.1.13,2013-08-05 03:56:00,
2013-08-04 22:57:00,62.5,54.1,29.95,South,190,0.0,0.0,74,0.00,,,0.00,Wunderground v.1.13,2013-08-05 03:57:00,
2013-08-04 22:58:00,62.5,54.1,29.95,South,190,0.0,0.0,74,0.00,,,0.00,Wunderground v.1.13,2013-08-05 03:58:00,
2013-08-04 23:01:00,62.4,54.0,29.95,South,190,0.0,0.0,74,0.00,,,0.00,Wunderground v.1.13,2013-08-05 04:01:00,
2013-08-04 23:03:00,62.3,54.3,29.95,South,190,0.0,0.0,75,0.00,,,0.00,Wunderground v.1.13,2013-08-05 04:03:00,
2013-08-04 23:06:00,62.2,54.2,29.94,South,190,0.0,0.0,75,0.00,,,0.00,Wunderground v.1.13,2013-08-05 04:06:00,
2013-08-04 23:07:00,62.2,54.2,29.94,South,190,0.0,2.0,75,0.00,,,0.00,Wunderground v.1.13,2013-08-05 04:07:00,
2013-08-04 23:09:00,62.2,54.5,29.94,South,173,1.0,2.0,76,0.00,,,0.00,Wunderground v.1.13,2013-08-05 04:09:00,
2013-08-04 23:12:00,62.2,55.3,29.94,SE,129,1.0,5.0,78,0.00,,,0.00,Wunderground v.1.13,2013-08-05 04:12:00,
2013-08-04 23:15:00,62.1,54.4,29.94,SE,128,3.0,4.0,76,0.00,,,0.00,Wunderground v.1.13,2013-08-05 04:15:00,
2013-08-04 23:17:00,62.0,54.0,29.94,SE,128,4.0,5.0,75,0.00,,,0.00,Wunderground v.1.13,2013-08-05 04:17:00,
2013-08-04 23:21:00,62.0,54.3,29.93,SE,126,4.0,5.0,76,0.00,,,0.00,Wunderground v.1.13,2013-08-05 04:21:00,
2013-08-04 23:22:00,62.0,54.3,29.93,SE,126,4.0,5.0,76,0.00,,,0.00,Wunderground v.1.13,2013-08-05 04:22:00,
2013-08-04 23:23:00,61.9,54.2,29.93,SE,125,4.0,5.0,76,0.00,,,0.00,Wunderground v.1.13,2013-08-05 04:23:00,
2013-08-04 23:24:00,61.9,54.6,29.93,SE,126,4.0,5.0,77,0.00,,,0.00,Wunderground v.1.13,2013-08-05 04:24:00,
2013-08-04 23:28:00,62.0,55.1,29.93,SE,125,3.0,4.0,78,0.00,,,0.00,Wunderground v.1.13,2013-08-05 04:28:00,
2013-08-04 23:29:00,62.0,55.1,29.93,SE,126,3.0,4.0,78,0.00,,,0.00,Wunderground v.1.13,2013-08-05 04:29:00,
2013-08-04 23:33:00,62.0,54.3,29.93,SE,125,3.0,5.0,76,0.00,,,0.00,Wunderground v.1.13,2013-08-05 04:33:00,
2013-08-04 23:34:00,62.0,54.3,29.93,SE,125,3.0,5.0,76,0.00,,,0.00,Wunderground v.1.13,2013-08-05 04:34:00,
2013-08-04 23:35:00,62.0,54.3,29.93,SE,125,3.0,4.0,76,0.00,,,0.00,Wunderground v.1.13,2013-08-05 04:35:00,
2013-08-04 23:36:00,62.0,54.3,29.93,SE,125,3.0,5.0,76,0.00,,,0.00,Wunderground v.1.13,2013-08-05 04:36:00,
2013-08-04 23:39:00,62.0,54.0,29.92,ESE,115,4.0,7.0,75,0.00,,,0.00,Wunderground v.1.13,2013-08-05 04:39:00,
2013-08-04 23:42:00,62.0,53.6,29.92,ESE,111,5.0,6.0,74,0.00,,,0.00,Wunderground v.1.13,2013-08-05 04:42:00,
2013-08-04 23:43:00,62.1,54.1,29.92,ESE,111,5.0,6.0,75,0.00,,,0.00,Wunderground v.1.13,2013-08-05 04:43:00,
2013-08-04 23:46:00,62.2,54.2,29.92,ESE,110,5.0,6.0,75,0.00,,,0.00,Wunderground v.1.13,2013-08-05 04:46:00,
2013-08-04 23:47:00,62.1,53.7,29.92,ESE,111,5.0,6.0,74,0.00,,,0.00,Wunderground v.1.13,2013-08-05 04:47:00,
2013-08-04 23:52:00,62.1,53.7,29.92,ESE,111,5.0,5.0,74,0.00,,,0.00,Wunderground v.1.13,2013-08-05 04:52:00,
2013-08-04 23:54:00,62.0,53.6,29.92,ESE,111,5.0,6.0,74,0.00,,,0.00,Wunderground v.1.13,2013-08-05 04:54:00,
2013-08-04 23:55:00,62.0,53.6,29.92,ESE,114,5.0,5.0,74,0.00,,,0.00,Wunderground v.1.13,2013-08-05 04:55:00,
2013-08-04 23:59:00,62.0,53.6,29.91,ESE,114,5.0,7.0,74,0.00,,,0.00,Wunderground v.1.13,2013-08-05 04:59:00,